Time,TemperatureF,DewpointF,PressureIn,WindDirection,WindDirectionDegrees,WindSpeedMPH,WindSpeedGustMPH,Humidity,HourlyPrecipIn,Conditions,Clouds,dailyrainin,SoftwareType,DateUTC
2013-03-14 00:00:00,7.4,2.8,30.24,NE,41,0.0,0.0,81,0.00,,CLR,0.00,VWS V12.07,2013-03-14 05:00:00,
2013-03-14 00:03:00,8.6,3.7,30.24,NE,41,0.0,0.0,80,0.00,,CLR,0.00,VWS V12.07,2013-03-14 05:03:00,
2013-03-14 00:04:00,8.6,3.7,30.24,NE,41,0.0,0.0,80,0.00,,CLR,0.00,VWS V12.07,2013-03-14 05:04:00,
2013-03-14 00:08:00,8.6,3.7,30.24,NE,41,0.0,0.0,80,0.00,,CLR,0.00,VWS V12.07,2013-03-14 05:08:00,
2013-03-14 00:09:00,8.6,3.7,30.24,NE,41,0.0,0.0,80,0.00,,CLR,0.00,VWS V12.07,2013-03-14 05:09:00,
2013-03-14 00:10:00,6.9,2.3,30.24,NE,41,0.0,0.0,81,0.00,,CLR,0.00,VWS V12.07,2013-03-14 05:10:00,
2013-03-14 00:13:00,8.6,4.0,30.24,NE,41,0.0,0.0,81,0.00,,CLR,0.00,VWS V12.07,2013-03-14 05:13:00,
2013-03-14 00:14:00,8.6,4.0,30.24,NE,41,0.0,0.0,81,0.00,,CLR,0.00,VWS V12.07,2013-03-14 05:14:00,
2013-03-14 00:18:00,8.4,3.8,30.24,NE,41,0.0,0.0,81,0.00,,CLR,0.00,VWS V12.07,2013-03-14 05:18:00,
2013-03-14 00:19:00,8.4,3.8,30.24,NE,41,0.0,0.0,81,0.00,,CLR,0.00,VWS V12.07,2013-03-14 05:19:00,
2013-03-14 00:20:00,6.7,1.9,30.24,NE,41,0.0,0.0,80,0.00,,CLR,0.00,VWS V12.07,2013-03-14 05:20:00,
2013-03-14 00:23:00,8.3,3.4,30.24,NE,41,0.0,0.0,80,0.00,,CLR,0.00,VWS V12.07,2013-03-14 05:23:00,
2013-03-14 00:24:00,8.3,3.4,30.24,NE,41,0.0,0.0,80,0.00,,CLR,0.00,VWS V12.07,2013-03-14 05:24:00,
2013-03-14 00:28:00,7.9,3.0,30.24,NE,41,0.0,0.0,80,0.00,,CLR,0.00,VWS V12.07,2013-03-14 05:28:00,
2013-03-14 00:29:00,7.9,3.0,30.24,NE,41,0.0,0.0,80,0.00,,CLR,0.00,VWS V12.07,2013-03-14 05:29:00,
2013-03-14 00:30:00,7.9,3.0,30.24,NE,41,0.0,0.0,80,0.00,,CLR,0.00,VWS V12.07,2013-03-14 05:30:00,
2013-03-14 00:31:00,7.7,2.8,30.24,NE,41,0.0,0.0,80,0.00,,CLR,0.00,VWS V12.07,2013-03-14 05:31:00,
2013-03-14 00:34:00,7.6,2.7,30.24,NE,41,0.0,0.0,80,0.00,,CLR,0.00,VWS V12.07,2013-03-14 05:34:00,
2013-03-14 00:35:00,7.6,2.7,30.24,NE,41,0.0,0.0,80,0.00,,CLR,0.00,VWS V12.07,2013-03-14 05:35:00,
2013-03-14 00:36:00,7.6,3.0,30.24,NE,41,0.0,0.0,81,0.00,,CLR,0.00,VWS V12.07,2013-03-14 05:36:00,
2013-03-14 00:39:00,7.4,2.8,30.24,NE,41,0.0,0.0,81,0.00,,CLR,0.00,VWS V12.07,2013-03-14 05:39:00,
2013-03-14 00:40:00,7.4,2.8,30.24,NE,41,0.0,0.0,81,0.00,,CLR,0.00,VWS V12.07,2013-03-14 05:40:00,
2013-03-14 00:41:00,7.4,2.8,30.24,NE,41,0.0,0.0,81,0.00,,CLR,0.00,VWS V12.07,2013-03-14 05:41:00,
2013-03-14 00:44:00,7.4,2.8,30.24,NE,41,0.0,0.0,81,0.00,,CLR,0.00,VWS V12.07,2013-03-14 05:44:00,
2013-03-14 00:45:00,7.4,2.8,30.24,NE,41,0.0,0.0,81,0.00,,CLR,0.00,VWS V12.07,2013-03-14 05:45:00,
2013-03-14 00:47:00,7.2,2.6,30.24,NE,41,0.0,0.0,81,0.00,,CLR,0.00,VWS V12.07,2013-03-14 05:47:00,
2013-03-14 00:49:00,7.2,2.6,30.24,NE,41,0.0,0.0,81,0.00,,CLR,0.00,VWS V12.07,2013-03-14 05:49:00,
2013-03-14 00:50:00,7.0,2.4,30.24,NE,41,0.0,0.0,81,0.00,,CLR,0.00,VWS V12.07,2013-03-14 05:50:00,
2013-03-14 00:52:00,7.0,2.4,30.24,NE,41,0.0,0.0,81,0.00,,CLR,0.00,VWS V12.07,2013-03-14 05:52:00,
2013-03-14 00:54:00,7.0,2.4,30.24,NE,41,0.0,0.0,81,0.00,,CLR,0.00,VWS V12.07,2013-03-14 05:54:00,
2013-03-14 00:55:00,6.9,2.3,30.24,NE,41,0.0,0.0,81,0.00,,CLR,0.00,VWS V12.07,2013-03-14 05:55:00,
2013-03-14 00:57:00,6.9,2.3,30.24,NE,41,0.0,0.0,81,0.00,,CLR,0.00,VWS V12.07,2013-03-14 05:57:00,
2013-03-14 00:59:00,6.9,2.3,30.24,NE,41,0.0,0.0,81,0.00,,CLR,0.00,VWS V12.07,2013-03-14 05:59:00,
2013-03-14 01:00:00,6.9,2.3,30.24,NE,41,0.0,0.0,81,0.00,,CLR,0.00,VWS V12.07,2013-03-14 06:00:00,
2013-03-14 01:02:00,6.7,2.1,30.24,NE,41,0.0,0.0,81,0.00,,CLR,0.00,VWS V12.07,2013-03-14 06:02:00,
2013-03-14 01:03:00,6.7,1.9,30.24,NE,41,0.0,0.0,80,0.00,,CLR,0.00,VWS V12.07,2013-03-14 06:03:00,
2013-03-14 01:05:00,6.7,2.1,30.24,NE,41,0.0,0.0,81,0.00,,CLR,0.00,VWS V12.07,2013-03-14 06:05:00,
2013-03-14 01:07:00,6.5,1.7,30.24,NE,41,0.0,0.0,80,0.00,,CLR,0.00,VWS V12.07,2013-03-14 06:07:00,
2013-03-14 01:08:00,6.3,1.5,30.24,NE,41,0.0,0.0,80,0.00,,CLR,0.00,VWS V12.07,2013-03-14 06:08:00,
2013-03-14 01:10:00,6.3,1.5,30.24,NE,41,0.0,0.0,80,0.00,,CLR,0.00,VWS V12.07,2013-03-14 06:10:00,
2013-03-14 01:12:00,6.1,1.3,30.24,NE,41,0.0,0.0,80,0.00,,CLR,0.00,VWS V12.07,2013-03-14 06:12:00,
2013-03-14 01:13:00,6.1,1.3,30.24,NE,41,0.0,0.0,80,0.00,,CLR,0.00,VWS V12.07,2013-03-14 06:13:00,
2013-03-14 01:15:00,6.0,1.2,30.24,NE,41,0.0,0.0,80,0.00,,CLR,0.00,VWS V12.07,2013-03-14 06:15:00,
2013-03-14 01:16:00,6.0,1.2,30.24,NE,41,0.0,0.0,80,0.00,,CLR,0.00,VWS V12.07,2013-03-14 06:16:00,
2013-03-14 01:17:00,5.8,1.0,30.24,NE,41,0.0,0.0,80,0.00,,CLR,0.00,VWS V12.07,2013-03-14 06:17:00,
2013-03-14 01:19:00,5.6,0.8,30.24,NE,41,0.0,0.0,80,0.00,,CLR,0.00,VWS V12.07,2013-03-14 06:19:00,
2013-03-14 01:20:00,4.7,0.4,30.23,NE,41,0.0,0.0,82,0.00,,CLR,0.00,VWS V12.07,2013-03-14 06:20:00,
2013-03-14 01:21:00,5.6,0.8,30.24,NE,41,0.0,0.0,80,0.00,,CLR,0.00,VWS V12.07,2013-03-14 06:21:00,
2013-03-14 01:22:00,5.4,0.6,30.24,NE,41,0.0,0.0,80,0.00,,CLR,0.00,VWS V12.07,2013-03-14 06:22:00,
2013-03-14 01:25:00,5.2,0.4,30.24,NE,41,0.0,0.0,80,0.00,,CLR,0.00,VWS V12.07,2013-03-14 06:25:00,
2013-03-14 01:26:00,5.2,0.4,30.24,NE,41,0.0,0.0,80,0.00,,CLR,0.00,VWS V12.07,2013-03-14 06:26:00,
2013-03-14 01:27:00,5.2,0.4,30.24,NE,41,0.0,0.0,80,0.00,,CLR,0.00,VWS V12.07,2013-03-14 06:27:00,
2013-03-14 01:28:00,5.2,0.4,30.24,NE,41,0.0,0.0,80,0.00,,CLR,0.00,VWS V12.07,2013-03-14 06:28:00,
2013-03-14 01:30:00,4.5,0.2,30.23,NE,41,0.0,0.0,82,0.00,,CLR,0.00,VWS V12.07,2013-03-14 06:30:00,
2013-03-14 01:31:00,5.0,0.2,30.23,NE,41,0.0,0.0,80,0.00,,CLR,0.00,VWS V12.07,2013-03-14 06:31:00,
2013-03-14 01:33:00,5.0,0.2,30.23,NE,41,0.0,0.0,80,0.00,,CLR,0.00,VWS V12.07,2013-03-14 06:33:00,
2013-03-14 01:37:00,4.8,0.3,30.23,NE,41,0.0,0.0,81,0.00,,CLR,0.00,VWS V12.07,2013-03-14 06:37:00,
2013-03-14 01:38:00,4.8,0.3,30.23,NE,41,0.0,0.0,81,0.00,,CLR,0.00,VWS V12.07,2013-03-14 06:38:00,
2013-03-14 01:40:00,4.3,0.0,30.23,NE,41,0.0,0.0,82,0.00,,CLR,0.00,VWS V12.07,2013-03-14 06:40:00,
2013-03-14 01:42:00,4.8,0.3,30.23,NE,41,0.0,0.0,81,0.00,,CLR,0.00,VWS V12.07,2013-03-14 06:42:00,
2013-03-14 01:43:00,4.8,0.3,30.23,NE,41,0.0,0.0,81,0.00,,CLR,0.00,VWS V12.07,2013-03-14 06:43:00,
2013-03-14 01:47:00,4.8,0.5,30.23,NE,41,0.0,0.0,82,0.00,,CLR,0.00,VWS V12.07,2013-03-14 06:47:00,
2013-03-14 01:48:00,4.8,0.5,30.23,NE,41,0.0,0.0,82,0.00,,CLR,0.00,VWS V12.07,2013-03-14 06:48:00,
2013-03-14 01:49:00,4.8,0.5,30.23,NE,41,0.0,0.0,82,0.00,,CLR,0.00,VWS V12.07,2013-03-14 06:49:00,
2013-03-14 01:50:00,3.9,-0.4,30.23,NE,41,0.0,0.0,82,0.00,,CLR,0.00,VWS V12.07,2013-03-14 06:50:00,
2013-03-14 01:52:00,4.7,0.4,30.23,NE,41,0.0,0.0,82,0.00,,CLR,0.00,VWS V12.07,2013-03-14 06:52:00,
2013-03-14 01:53:00,4.7,0.4,30.23,NE,41,0.0,0.0,82,0.00,,CLR,0.00,VWS V12.07,2013-03-14 06:53:00,
2013-03-14 01:54:00,4.7,0.4,30.23,NE,41,0.0,0.0,82,0.00,,CLR,0.00,VWS V12.07,2013-03-14 06:54:00,
2013-03-14 01:57:00,4.7,0.4,30.23,NE,41,0.0,0.0,82,0.00,,CLR,0.00,VWS V12.07,2013-03-14 06:57:00,
2013-03-14 01:59:00,4.7,0.4,30.23,NE,41,0.0,0.0,82,0.00,,CLR,0.00,VWS V12.07,2013-03-14 06:59:00,
2013-03-14 02:00:00,3.5,-1.0,30.23,NE,41,0.0,0.0,81,0.00,,CLR,0.00,VWS V12.07,2013-03-14 07:00:00,
2013-03-14 02:03:00,4.7,0.4,30.23,NE,41,0.0,0.0,82,0.00,,CLR,0.00,VWS V12.07,2013-03-14 07:03:00,
2013-03-14 02:04:00,4.7,0.4,30.23,NE,41,0.0,0.0,82,0.00,,CLR,0.00,VWS V12.07,2013-03-14 07:04:00,
2013-03-14 02:05:00,4.7,0.4,30.23,NE,41,0.0,0.0,82,0.00,,CLR,0.00,VWS V12.07,2013-03-14 07:05:00,
2013-03-14 02:08:00,4.7,0.4,30.23,NE,41,0.0,0.0,82,0.00,,CLR,0.00,VWS V12.07,2013-03-14 07:08:00,
2013-03-14 02:09:00,4.7,0.4,30.23,NE,41,0.0,0.0,82,0.00,,CLR,0.00,VWS V12.07,2013-03-14 07:09:00,
2013-03-14 02:10:00,4.7,0.4,30.23,NE,41,0.0,0.0,82,0.00,,CLR,0.00,VWS V12.07,2013-03-14 07:10:00,
2013-03-14 02:14:00,4.5,0.2,30.23,NE,41,0.0,0.0,82,0.00,,CLR,0.00,VWS V12.07,2013-03-14 07:14:00,
2013-03-14 02:15:00,4.5,0.2,30.23,NE,41,0.0,0.0,82,0.00,,CLR,0.00,VWS V12.07,2013-03-14 07:15:00,
2013-03-14 02:19:00,4.3,0.0,30.23,NE,41,0.0,0.0,82,0.00,,CLR,0.00,VWS V12.07,2013-03-14 07:19:00,
2013-03-14 02:20:00,4.3,0.0,30.23,NE,41,0.0,0.0,82,0.00,,CLR,0.00,VWS V12.07,2013-03-14 07:20:00,
2013-03-14 02:24:00,4.3,0.0,30.23,NE,41,0.0,0.0,82,0.00,,CLR,0.00,VWS V12.07,2013-03-14 07:24:00,
2013-03-14 02:25:00,4.3,0.0,30.23,NE,41,0.0,0.0,82,0.00,,CLR,0.00,VWS V12.07,2013-03-14 07:25:00,
2013-03-14 02:26:00,4.3,0.0,30.23,NE,41,0.0,0.0,82,0.00,,CLR,0.00,VWS V12.07,2013-03-14 07:26:00,
2013-03-14 02:29:00,4.1,-0.2,30.23,NE,41,0.0,0.0,82,0.00,,CLR,0.00,VWS V12.07,2013-03-14 07:29:00,
2013-03-14 02:30:00,2.2,-2.8,30.22,NE,41,0.0,0.0,79,0.00,,CLR,0.00,VWS V12.07,2013-03-14 07:30:00,
2013-03-14 02:31:00,4.1,-0.2,30.23,NE,41,0.0,0.0,82,0.00,,CLR,0.00,VWS V12.07,2013-03-14 07:31:00,
2013-03-14 02:32:00,4.1,-0.2,30.23,NE,41,0.0,0.0,82,0.00,,CLR,0.00,VWS V12.07,2013-03-14 07:32:00,
2013-03-14 02:34:00,4.1,-0.2,30.23,NE,41,0.0,0.0,82,0.00,,CLR,0.00,VWS V12.07,2013-03-14 07:34:00,
2013-03-14 02:36:00,3.9,-0.6,30.23,NE,41,0.0,0.0,81,0.00,,CLR,0.00,VWS V12.07,2013-03-14 07:36:00,
2013-03-14 02:37:00,3.9,-0.6,30.23,NE,41,0.0,0.0,81,0.00,,CLR,0.00,VWS V12.07,2013-03-14 07:37:00,
2013-03-14 02:39:00,3.7,-0.8,30.23,NE,41,0.0,0.0,81,0.00,,CLR,0.00,VWS V12.07,2013-03-14 07:39:00,
2013-03-14 02:40:00,1.7,-3.3,30.22,NE,41,0.0,0.0,79,0.00,,CLR,0.00,VWS V12.07,2013-03-14 07:40:00,
2013-03-14 02:41:00,3.7,-0.8,30.23,NE,41,0.0,0.0,81,0.00,,CLR,0.00,VWS V12.07,2013-03-14 07:41:00,
2013-03-14 02:42:00,3.5,-1.0,30.23,NE,41,0.0,0.0,81,0.00,,CLR,0.00,VWS V12.07,2013-03-14 07:42:00,
2013-03-14 02:43:00,3.5,-1.0,30.23,NE,41,0.0,0.0,81,0.00,,CLR,0.00,VWS V12.07,2013-03-14 07:43:00,
2013-03-14 02:44:00,3.5,-1.0,30.23,NE,41,0.0,0.0,81,0.00,,CLR,0.00,VWS V12.07,2013-03-14 07:44:00,
2013-03-14 02:48:00,3.5,-1.0,30.23,NE,41,0.0,0.0,81,0.00,,CLR,0.00,VWS V12.07,2013-03-14 07:48:00,
2013-03-14 02:49:00,3.5,-1.0,30.23,NE,41,0.0,0.0,81,0.00,,CLR,0.00,VWS V12.07,2013-03-14 07:49:00,
2013-03-14 02:50:00,1.3,-3.7,30.23,NE,41,0.0,0.0,79,0.00,,CLR,0.00,VWS V12.07,2013-03-14 07:50:00,
2013-03-14 02:53:00,3.5,-1.0,30.23,NE,41,0.0,0.0,81,0.00,,CLR,0.00,VWS V12.07,2013-03-14 07:53:00,
2013-03-14 02:54:00,3.5,-1.0,30.23,NE,41,0.0,0.0,81,0.00,,CLR,0.00,VWS V12.07,2013-03-14 07:54:00,
2013-03-14 02:59:00,3.0,-1.8,30.23,NE,41,0.0,0.0,80,0.00,,CLR,0.00,VWS V12.07,2013-03-14 07:59:00,
2013-03-14 03:00:00,3.0,-1.8,30.23,NE,41,0.0,0.0,80,0.00,,CLR,0.00,VWS V12.07,2013-03-14 08:00:00,
2013-03-14 03:04:00,2.8,-2.0,30.23,NE,41,0.0,0.0,80,0.00,,CLR,0.00,VWS V12.07,2013-03-14 08:04:00,
2013-03-14 03:05:00,2.8,-2.0,30.23,NE,41,0.0,0.0,80,0.00,,CLR,0.00,VWS V12.07,2013-03-14 08:05:00,
2013-03-14 03:09:00,2.6,-2.2,30.23,NE,41,0.0,0.0,80,0.00,,CLR,0.00,VWS V12.07,2013-03-14 08:09:00,
2013-03-14 03:10:00,2.4,-2.3,30.23,NE,41,0.0,0.0,80,0.00,,CLR,0.00,VWS V12.07,2013-03-14 08:10:00,
2013-03-14 03:11:00,2.4,-2.3,30.23,NE,41,0.0,0.0,80,0.00,,CLR,0.00,VWS V12.07,2013-03-14 08:11:00,
2013-03-14 03:14:00,2.2,-2.5,30.22,NE,41,0.0,0.0,80,0.00,,CLR,0.00,VWS V12.07,2013-03-14 08:14:00,
2013-03-14 03:15:00,2.2,-2.8,30.22,NE,41,0.0,0.0,79,0.00,,CLR,0.00,VWS V12.07,2013-03-14 08:15:00,
2013-03-14 03:16:00,2.0,-3.0,30.22,NE,41,0.0,0.0,79,0.00,,CLR,0.00,VWS V12.07,2013-03-14 08:16:00,
2013-03-14 03:17:00,2.0,-3.0,30.22,NE,41,0.0,0.0,79,0.00,,CLR,0.00,VWS V12.07,2013-03-14 08:17:00,
2013-03-14 03:20:00,2.0,-3.0,30.22,NE,41,0.0,0.0,79,0.00,,CLR,0.00,VWS V12.07,2013-03-14 08:20:00,
2013-03-14 03:22:00,1.8,-3.2,30.22,NE,41,0.0,0.0,79,0.00,,CLR,0.00,VWS V12.07,2013-03-14 08:22:00,
2013-03-14 03:23:00,1.8,-3.2,30.22,NE,41,0.0,0.0,79,0.00,,CLR,0.00,VWS V12.07,2013-03-14 08:23:00,
2013-03-14 03:25:00,1.7,-3.3,30.22,NE,41,0.0,0.0,79,0.00,,CLR,0.00,VWS V12.07,2013-03-14 08:25:00,
2013-03-14 03:27:00,1.7,-3.3,30.22,NE,41,0.0,0.0,79,0.00,,CLR,0.00,VWS V12.07,2013-03-14 08:27:00,
2013-03-14 03:28:00,1.7,-3.3,30.22,NE,41,0.0,0.0,79,0.00,,CLR,0.00,VWS V12.07,2013-03-14 08:28:00,
2013-03-14 03:30:00,1.5,-3.5,30.23,NE,41,0.0,0.0,79,0.00,,CLR,0.00,VWS V12.07,2013-03-14 08:30:00,
2013-03-14 03:32:00,1.5,-3.5,30.23,NE,41,0.0,0.0,79,0.00,,CLR,0.00,VWS V12.07,2013-03-14 08:32:00,
2013-03-14 03:33:00,1.5,-3.5,30.23,NE,41,0.0,0.0,79,0.00,,CLR,0.00,VWS V12.07,2013-03-14 08:33:00,
2013-03-14 03:35:00,1.3,-3.7,30.23,NE,41,0.0,0.0,79,0.00,,CLR,0.00,VWS V12.07,2013-03-14 08:35:00,
2013-03-14 03:37:00,1.3,-3.7,30.23,NE,41,0.0,0.0,79,0.00,,CLR,0.00,VWS V12.07,2013-03-14 08:37:00,
2013-03-14 03:38:00,1.3,-3.7,30.23,NE,41,0.0,0.0,79,0.00,,CLR,0.00,VWS V12.07,2013-03-14 08:38:00,
2013-03-14 03:40:00,1.1,-3.9,30.23,NE,41,0.0,0.0,79,0.00,,CLR,0.00,VWS V12.07,2013-03-14 08:40:00,
2013-03-14 03:42:00,1.1,-3.9,30.23,NE,41,0.0,0.0,79,0.00,,CLR,0.00,VWS V12.07,2013-03-14 08:42:00,
2013-03-14 03:43:00,1.1,-3.9,30.23,NE,41,0.0,0.0,79,0.00,,CLR,0.00,VWS V12.07,2013-03-14 08:43:00,
2013-03-14 03:45:00,1.1,-3.9,30.23,NE,41,0.0,0.0,79,0.00,,CLR,0.00,VWS V12.07,2013-03-14 08:45:00,
2013-03-14 03:48:00,1.1,-3.9,30.23,NE,41,0.0,0.0,79,0.00,,CLR,0.00,VWS V12.07,2013-03-14 08:48:00,
2013-03-14 03:50:00,0.9,-4.1,30.23,NE,41,0.0,0.0,79,0.00,,CLR,0.00,VWS V12.07,2013-03-14 08:50:00,
2013-03-14 03:53:00,0.9,-4.1,30.23,NE,41,0.0,0.0,79,0.00,,CLR,0.00,VWS V12.07,2013-03-14 08:53:00,
2013-03-14 03:55:00,0.9,-4.1,30.23,NE,41,0.0,0.0,79,0.00,,CLR,0.00,VWS V12.07,2013-03-14 08:55:00,
2013-03-14 03:58:00,0.7,-4.3,30.23,NE,41,0.0,0.0,79,0.00,,CLR,0.00,VWS V12.07,2013-03-14 08:58:00,
2013-03-14 03:59:00,0.7,-4.3,30.23,NE,41,0.0,0.0,79,0.00,,CLR,0.00,VWS V12.07,2013-03-14 08:59:00,
2013-03-14 04:00:00,0.7,-4.3,30.22,NE,41,0.0,0.0,79,0.00,,CLR,0.00,VWS V12.07,2013-03-14 09:00:00,
2013-03-14 04:03:00,0.7,-4.0,30.22,NE,41,0.0,0.0,80,0.00,,CLR,0.00,VWS V12.07,2013-03-14 09:03:00,
2013-03-14 04:04:00,0.7,-4.0,30.22,NE,41,0.0,0.0,80,0.00,,CLR,0.00,VWS V12.07,2013-03-14 09:04:00,
2013-03-14 04:06:00,0.7,-4.0,30.22,NE,41,0.0,0.0,80,0.00,,CLR,0.00,VWS V12.07,2013-03-14 09:06:00,
2013-03-14 04:08:00,0.9,-3.8,30.22,NE,41,0.0,0.0,80,0.00,,CLR,0.00,VWS V12.07,2013-03-14 09:08:00,
2013-03-14 04:09:00,0.9,-3.8,30.22,NE,41,0.0,0.0,80,0.00,,CLR,0.00,VWS V12.07,2013-03-14 09:09:00,
2013-03-14 04:10:00,-0.2,-5.2,30.22,NE,41,0.0,0.0,79,0.00,,CLR,0.00,VWS V12.07,2013-03-14 09:10:00,
2013-03-14 04:11:00,0.9,-3.8,30.22,NE,41,0.0,0.0,80,0.00,,CLR,0.00,VWS V12.07,2013-03-14 09:11:00,
2013-03-14 04:13:00,0.9,-3.8,30.22,NE,41,0.0,0.0,80,0.00,,CLR,0.00,VWS V12.07,2013-03-14 09:13:00,
2013-03-14 04:14:00,0.9,-3.8,30.22,NE,41,0.0,0.0,80,0.00,,CLR,0.00,VWS V12.07,2013-03-14 09:14:00,
2013-03-14 04:17:00,0.9,-3.8,30.22,NE,41,0.0,0.0,80,0.00,,CLR,0.00,VWS V12.07,2013-03-14 09:17:00,
2013-03-14 04:19:00,0.9,-3.8,30.22,NE,41,0.0,0.0,80,0.00,,CLR,0.00,VWS V12.07,2013-03-14 09:19:00,
2013-03-14 04:20:00,-0.6,-5.5,30.22,NE,41,0.0,0.0,79,0.00,,CLR,0.00,VWS V12.07,2013-03-14 09:20:00,
2013-03-14 04:22:00,0.7,-4.0,30.22,NE,41,0.0,0.0,80,0.00,,CLR,0.00,VWS V12.07,2013-03-14 09:22:00,
2013-03-14 04:24:00,0.7,-4.3,30.22,NE,41,0.0,0.0,79,0.00,,CLR,0.00,VWS V12.07,2013-03-14 09:24:00,
2013-03-14 04:25:00,0.7,-4.3,30.22,NE,41,0.0,0.0,79,0.00,,CLR,0.00,VWS V12.07,2013-03-14 09:25:00,
2013-03-14 04:27:00,0.5,-4.5,30.22,NE,41,0.0,0.0,79,0.00,,CLR,0.00,VWS V12.07,2013-03-14 09:27:00,
2013-03-14 04:30:00,0.3,-4.7,30.22,NE,41,0.0,0.0,79,0.00,,CLR,0.00,VWS V12.07,2013-03-14 09:30:00,
2013-03-14 04:32:00,0.3,-4.7,30.22,NE,41,0.0,0.0,79,0.00,,CLR,0.00,VWS V12.07,2013-03-14 09:32:00,
2013-03-14 04:35:00,0.1,-4.8,30.22,NE,41,0.0,0.0,79,0.00,,CLR,0.00,VWS V12.07,2013-03-14 09:35:00,
2013-03-14 04:37:00,0.1,-4.8,30.22,NE,41,0.0,0.0,79,0.00,,CLR,0.00,VWS V12.07,2013-03-14 09:37:00,
2013-03-14 04:38:00,0.1,-4.8,30.22,NE,41,0.0,0.0,79,0.00,,CLR,0.00,VWS V12.07,2013-03-14 09:38:00,
2013-03-14 04:40:00,0.1,-4.8,30.22,NE,41,0.0,0.0,79,0.00,,CLR,0.00,VWS V12.07,2013-03-14 09:40:00,
2013-03-14 04:42:00,0.1,-4.9,30.22,NE,41,0.0,0.0,79,0.00,,CLR,0.00,VWS V12.07,2013-03-14 09:42:00,
2013-03-14 04:44:00,0.1,-4.9,30.22,NE,41,0.0,0.0,79,0.00,,CLR,0.00,VWS V12.07,2013-03-14 09:44:00,
2013-03-14 04:45:00,0.1,-4.9,30.22,NE,41,0.0,0.0,79,0.00,,CLR,0.00,VWS V12.07,2013-03-14 09:45:00,
2013-03-14 04:46:00,0.1,-4.9,30.22,NE,41,0.0,0.0,79,0.00,,CLR,0.00,VWS V12.07,2013-03-14 09:46:00,
2013-03-14 04:47:00,0.1,-4.9,30.22,NE,41,0.0,0.0,79,0.00,,CLR,0.00,VWS V12.07,2013-03-14 09:47:00,
2013-03-14 04:49:00,0.1,-4.9,30.22,NE,41,0.0,0.0,79,0.00,,CLR,0.00,VWS V12.07,2013-03-14 09:49:00,
2013-03-14 04:50:00,-0.2,-5.2,30.22,NE,41,0.0,0.0,79,0.00,,CLR,0.00,VWS V12.07,2013-03-14 09:50:00,
2013-03-14 04:51:00,-0.2,-5.2,30.22,NE,41,0.0,0.0,79,0.00,,CLR,0.00,VWS V12.07,2013-03-14 09:51:00,
2013-03-14 04:52:00,-0.2,-5.2,30.22,NE,41,0.0,0.0,79,0.00,,CLR,0.00,VWS V12.07,2013-03-14 09:52:00,
2013-03-14 04:54:00,-0.2,-5.2,30.22,NE,41,0.0,0.0,79,0.00,,CLR,0.00,VWS V12.07,2013-03-14 09:54:00,
2013-03-14 04:56:00,-0.2,-5.2,30.22,NE,41,0.0,0.0,79,0.00,,CLR,0.00,VWS V12.07,2013-03-14 09:56:00,
2013-03-14 04:57:00,-0.2,-5.4,30.22,NE,41,0.0,0.0,78,0.00,,CLR,0.00,VWS V12.07,2013-03-14 09:57:00,
2013-03-14 05:00:00,-0.4,-5.6,30.22,NE,41,0.0,0.0,78,0.00,,CLR,0.00,VWS V12.07,2013-03-14 10:00:00,
2013-03-14 05:01:00,-0.4,-5.6,30.22,NE,41,0.0,0.0,78,0.00,,CLR,0.00,VWS V12.07,2013-03-14 10:01:00,
2013-03-14 05:02:00,-0.4,-5.6,30.22,NE,41,0.0,0.0,78,0.00,,CLR,0.00,VWS V12.07,2013-03-14 10:02:00,
2013-03-14 05:03:00,-0.4,-5.6,30.22,NE,41,0.0,0.0,78,0.00,,CLR,0.00,VWS V12.07,2013-03-14 10:03:00,
2013-03-14 05:05:00,-0.6,-5.5,30.22,NE,41,0.0,0.0,79,0.00,,CLR,0.00,VWS V12.07,2013-03-14 10:05:00,
2013-03-14 05:07:00,-0.6,-5.5,30.22,NE,41,0.0,0.0,79,0.00,,CLR,0.00,VWS V12.07,2013-03-14 10:07:00,
2013-03-14 05:08:00,-0.6,-5.5,30.22,NE,41,0.0,0.0,79,0.00,,CLR,0.00,VWS V12.07,2013-03-14 10:08:00,
2013-03-14 05:10:00,-0.6,-5.8,30.22,NE,41,0.0,0.0,78,0.00,,CLR,0.00,VWS V12.07,2013-03-14 10:10:00,
2013-03-14 05:12:00,-0.8,-6.0,30.22,NE,41,0.0,0.0,78,0.00,,CLR,0.00,VWS V12.07,2013-03-14 10:12:00,
2013-03-14 05:13:00,-0.8,-6.0,30.22,NE,41,0.0,0.0,78,0.00,,CLR,0.00,VWS V12.07,2013-03-14 10:13:00,
2013-03-14 05:15:00,-1.0,-6.2,30.23,NE,41,0.0,0.0,78,0.00,,CLR,0.00,VWS V12.07,2013-03-14 10:15:00,
2013-03-14 05:17:00,-1.0,-6.2,30.23,NE,41,0.0,0.0,78,0.00,,CLR,0.00,VWS V12.07,2013-03-14 10:17:00,
2013-03-14 05:19:00,-1.0,-6.2,30.23,NE,41,0.0,0.0,78,0.00,,CLR,0.00,VWS V12.07,2013-03-14 10:19:00,
2013-03-14 05:20:00,-1.0,-6.2,30.23,NE,41,0.0,0.0,78,0.00,,CLR,0.00,VWS V12.07,2013-03-14 10:20:00,
2013-03-14 05:22:00,-1.2,-6.4,30.23,NE,41,0.0,0.0,78,0.00,,CLR,0.00,VWS V12.07,2013-03-14 10:22:00,
2013-03-14 05:23:00,-1.2,-6.4,30.23,NE,41,0.0,0.0,78,0.00,,CLR,0.00,VWS V12.07,2013-03-14 10:23:00,
2013-03-14 05:24:00,-1.2,-6.4,30.23,NE,41,0.0,0.0,78,0.00,,CLR,0.00,VWS V12.07,2013-03-14 10:24:00,
2013-03-14 05:25:00,-1.2,-6.4,30.23,NE,41,0.0,0.0,78,0.00,,CLR,0.00,VWS V12.07,2013-03-14 10:25:00,
2013-03-14 05:27:00,-1.2,-6.4,30.23,NE,41,0.0,0.0,78,0.00,,CLR,0.00,VWS V12.07,2013-03-14 10:27:00,
2013-03-14 05:28:00,-1.2,-6.4,30.23,NE,41,0.0,0.0,78,0.00,,CLR,0.00,VWS V12.07,2013-03-14 10:28:00,
2013-03-14 05:29:00,-1.2,-6.4,30.22,NE,41,0.0,0.0,78,0.00,,CLR,0.00,VWS V12.07,2013-03-14 10:29:00,
2013-03-14 05:30:00,-1.4,-6.6,30.22,NE,41,0.0,0.0,78,0.00,,CLR,0.00,VWS V12.07,2013-03-14 10:30:00,
2013-03-14 05:32:00,-1.4,-6.6,30.22,NE,41,0.0,0.0,78,0.00,,CLR,0.00,VWS V12.07,2013-03-14 10:32:00,
2013-03-14 05:33:00,-1.4,-6.6,30.22,NE,41,0.0,0.0,78,0.00,,CLR,0.00,VWS V12.07,2013-03-14 10:33:00,
2013-03-14 05:34:00,-1.4,-6.6,30.22,NE,41,0.0,0.0,78,0.00,,CLR,0.00,VWS V12.07,2013-03-14 10:34:00,
2013-03-14 05:35:00,-1.4,-6.6,30.22,NE,41,0.0,0.0,78,0.00,,CLR,0.00,VWS V12.07,2013-03-14 10:35:00,
2013-03-14 05:37:00,-1.6,-7.0,30.22,NE,41,0.0,0.0,77,0.00,,CLR,0.00,VWS V12.07,2013-03-14 10:37:00,
2013-03-14 05:38:00,-1.6,-7.0,30.22,NE,41,0.0,0.0,77,0.00,,CLR,0.00,VWS V12.07,2013-03-14 10:38:00,
2013-03-14 05:40:00,-1.6,-7.0,30.22,NE,41,0.0,0.0,77,0.00,,CLR,0.00,VWS V12.07,2013-03-14 10:40:00,
2013-03-14 05:41:00,-1.6,-7.0,30.22,NE,41,0.0,0.0,77,0.00,,CLR,0.00,VWS V12.07,2013-03-14 10:41:00,
2013-03-14 05:42:00,-1.8,-7.2,30.22,NE,41,0.0,0.0,77,0.00,,CLR,0.00,VWS V12.07,2013-03-14 10:42:00,
2013-03-14 05:44:00,-1.8,-7.2,30.23,NE,41,0.0,0.0,77,0.00,,CLR,0.00,VWS V12.07,2013-03-14 10:44:00,
2013-03-14 05:45:00,-1.8,-7.2,30.23,NE,41,0.0,0.0,77,0.00,,CLR,0.00,VWS V12.07,2013-03-14 10:45:00,
2013-03-14 05:46:00,-1.8,-7.2,30.23,NE,41,0.0,0.0,77,0.00,,CLR,0.00,VWS V12.07,2013-03-14 10:46:00,
2013-03-14 05:48:00,-1.8,-7.2,30.23,NE,41,0.0,0.0,77,0.00,,CLR,0.00,VWS V12.07,2013-03-14 10:48:00,
2013-03-14 05:50:00,-2.0,-7.4,30.23,NE,41,0.0,0.0,77,0.00,,CLR,0.00,VWS V12.07,2013-03-14 10:50:00,
2013-03-14 05:51:00,-2.0,-7.4,30.23,NE,41,0.0,0.0,77,0.00,,CLR,0.00,VWS V12.07,2013-03-14 10:51:00,
2013-03-14 05:53:00,-2.2,-7.6,30.23,NE,41,0.0,0.0,77,0.00,,CLR,0.00,VWS V12.07,2013-03-14 10:53:00,
2013-03-14 05:55:00,-2.2,-7.9,30.23,NE,41,0.0,0.0,76,0.00,,CLR,0.00,VWS V12.07,2013-03-14 10:55:00,
2013-03-14 05:57:00,-2.4,-8.1,30.23,NE,41,0.0,0.0,76,0.00,,CLR,0.00,VWS V12.07,2013-03-14 10:57:00,
2013-03-14 05:58:00,-2.4,-8.1,30.23,NE,41,0.0,0.0,76,0.00,,CLR,0.00,VWS V12.07,2013-03-14 10:58:00,
2013-03-14 06:00:00,-2.4,-7.8,30.23,NE,41,0.0,0.0,77,0.00,,CLR,0.00,VWS V12.07,2013-03-14 11:00:00,
2013-03-14 06:02:00,-2.6,-8.3,30.23,NE,41,0.0,0.0,76,0.00,,CLR,0.00,VWS V12.07,2013-03-14 11:02:00,
2013-03-14 06:03:00,-2.6,-8.0,30.23,NE,41,0.0,0.0,77,0.00,,CLR,0.00,VWS V12.07,2013-03-14 11:03:00,
2013-03-14 06:05:00,-2.6,-8.0,30.23,NE,41,0.0,0.0,77,0.00,,CLR,0.00,VWS V12.07,2013-03-14 11:05:00,
2013-03-14 06:06:00,-2.6,-8.0,30.23,NE,41,0.0,0.0,77,0.00,,CLR,0.00,VWS V12.07,2013-03-14 11:06:00,
2013-03-14 06:07:00,-2.6,-8.3,30.23,NE,41,0.0,0.0,76,0.00,,CLR,0.00,VWS V12.07,2013-03-14 11:07:00,
2013-03-14 06:08:00,-2.6,-8.3,30.23,NE,41,0.0,0.0,76,0.00,,CLR,0.00,VWS V12.07,2013-03-14 11:08:00,
2013-03-14 06:10:00,-3.5,-9.1,30.23,NE,41,0.0,0.0,76,0.00,,CLR,0.00,VWS V12.07,2013-03-14 11:10:00,
2013-03-14 06:11:00,-2.6,-8.3,30.23,NE,41,0.0,0.0,76,0.00,,CLR,0.00,VWS V12.07,2013-03-14 11:11:00,
2013-03-14 06:12:00,-2.8,-8.5,30.23,NE,41,0.0,0.0,76,0.00,,CLR,0.00,VWS V12.07,2013-03-14 11:12:00,
2013-03-14 06:14:00,-2.8,-8.5,30.23,NE,41,0.0,0.0,76,0.00,,CLR,0.00,VWS V12.07,2013-03-14 11:14:00,
2013-03-14 06:16:00,-2.8,-8.5,30.24,NE,41,0.0,0.0,76,0.00,,CLR,0.00,VWS V12.07,2013-03-14 11:16:00,
2013-03-14 06:17:00,-2.8,-8.5,30.24,NE,41,0.0,0.0,76,0.00,,CLR,0.00,VWS V12.07,2013-03-14 11:17:00,
2013-03-14 06:19:00,-2.8,-8.5,30.24,NE,41,0.0,0.0,76,0.00,,CLR,0.00,VWS V12.07,2013-03-14 11:19:00,
2013-03-14 06:20:00,-3.7,-9.4,30.24,NE,41,0.0,0.0,76,0.00,,CLR,0.00,VWS V12.07,2013-03-14 11:20:00,
2013-03-14 06:21:00,-2.8,-8.5,30.24,NE,41,0.0,0.0,76,0.00,,CLR,0.00,VWS V12.07,2013-03-14 11:21:00,
2013-03-14 06:23:00,-3.1,-8.8,30.24,NE,41,0.0,0.0,76,0.00,,CLR,0.00,VWS V12.07,2013-03-14 11:23:00,
2013-03-14 06:24:00,-3.1,-8.8,30.24,NE,41,0.0,0.0,76,0.00,,CLR,0.00,VWS V12.07,2013-03-14 11:24:00,
2013-03-14 06:27:00,-3.1,-8.8,30.24,NE,41,0.0,0.0,76,0.00,,CLR,0.00,VWS V12.07,2013-03-14 11:27:00,
2013-03-14 06:28:00,-3.1,-8.8,30.24,NE,41,0.0,0.0,76,0.00,,CLR,0.00,VWS V12.07,2013-03-14 11:28:00,
2013-03-14 06:29:00,-3.1,-8.8,30.24,NE,41,0.0,0.0,76,0.00,,CLR,0.00,VWS V12.07,2013-03-14 11:29:00,
2013-03-14 06:30:00,-3.9,-9.5,30.25,NE,41,0.0,0.0,76,0.00,,CLR,0.00,VWS V12.07,2013-03-14 11:30:00,
2013-03-14 06:32:00,-3.1,-8.8,30.24,NE,41,0.0,0.0,76,0.00,,CLR,0.00,VWS V12.07,2013-03-14 11:32:00,
2013-03-14 06:33:00,-3.1,-8.8,30.24,NE,41,0.0,0.0,76,0.00,,CLR,0.00,VWS V12.07,2013-03-14 11:33:00,
2013-03-14 06:35:00,-3.1,-8.8,30.24,NE,41,0.0,0.0,76,0.00,,CLR,0.00,VWS V12.07,2013-03-14 11:35:00,
2013-03-14 06:37:00,-3.3,-8.7,30.24,NE,41,0.0,0.0,77,0.00,,CLR,0.00,VWS V12.07,2013-03-14 11:37:00,
2013-03-14 06:38:00,-3.3,-8.7,30.24,NE,41,0.0,0.0,77,0.00,,CLR,0.00,VWS V12.07,2013-03-14 11:38:00,
2013-03-14 06:40:00,-3.3,-9.0,30.24,NE,41,0.0,0.0,76,0.00,,CLR,0.00,VWS V12.07,2013-03-14 11:40:00,
2013-03-14 06:42:00,-3.3,-9.0,30.24,NE,41,0.0,0.0,76,0.00,,CLR,0.00,VWS V12.07,2013-03-14 11:42:00,
2013-03-14 06:43:00,-3.3,-9.0,30.24,NE,41,0.0,0.0,76,0.00,,CLR,0.00,VWS V12.07,2013-03-14 11:43:00,
2013-03-14 06:44:00,-3.3,-9.0,30.23,NE,41,0.0,0.0,76,0.00,,CLR,0.00,VWS V12.07,2013-03-14 11:44:00,
2013-03-14 06:45:00,-3.3,-9.0,30.23,NE,41,0.0,0.0,76,0.00,,CLR,0.00,VWS V12.07,2013-03-14 11:45:00,
2013-03-14 06:47:00,-3.3,-9.0,30.23,NE,41,0.0,0.0,76,0.00,,CLR,0.00,VWS V12.07,2013-03-14 11:47:00,
2013-03-14 06:49:00,-3.3,-9.0,30.23,NE,41,0.0,0.0,76,0.00,,CLR,0.00,VWS V12.07,2013-03-14 11:49:00,
2013-03-14 06:50:00,-3.3,-9.0,30.23,NE,41,0.0,0.0,76,0.00,,CLR,0.00,VWS V12.07,2013-03-14 11:50:00,
2013-03-14 06:53:00,-3.5,-9.1,30.23,NE,41,0.0,0.0,76,0.00,,CLR,0.00,VWS V12.07,2013-03-14 11:53:00,
2013-03-14 06:54:00,-3.5,-9.1,30.23,NE,41,0.0,0.0,76,0.00,,CLR,0.00,VWS V12.07,2013-03-14 11:54:00,
2013-03-14 06:55:00,-3.5,-9.1,30.23,NE,41,0.0,0.0,76,0.00,,CLR,0.00,VWS V12.07,2013-03-14 11:55:00,
2013-03-14 06:58:00,-3.7,-9.4,30.23,NE,41,0.0,0.0,76,0.00,,CLR,0.00,VWS V12.07,2013-03-14 11:58:00,
2013-03-14 06:59:00,-3.7,-9.4,30.24,NE,41,0.0,0.0,76,0.00,,CLR,0.00,VWS V12.07,2013-03-14 11:59:00,
2013-03-14 07:00:00,-3.7,-9.4,30.24,NE,41,0.0,0.0,76,0.00,,CLR,0.00,VWS V12.07,2013-03-14 12:00:00,
2013-03-14 07:01:00,-3.7,-9.4,30.24,NE,41,0.0,0.0,76,0.00,,CLR,0.00,VWS V12.07,2013-03-14 12:01:00,
2013-03-14 07:03:00,-3.7,-9.4,30.24,NE,41,0.0,0.0,76,0.00,,CLR,0.00,VWS V12.07,2013-03-14 12:03:00,
2013-03-14 07:04:00,-3.7,-9.4,30.24,NE,41,0.0,0.0,76,0.00,,CLR,0.00,VWS V12.07,2013-03-14 12:04:00,
2013-03-14 07:05:00,-3.7,-9.4,30.24,NE,41,0.0,0.0,76,0.00,,CLR,0.00,VWS V12.07,2013-03-14 12:05:00,
2013-03-14 07:06:00,-3.7,-9.4,30.24,NE,41,0.0,0.0,76,0.00,,CLR,0.00,VWS V12.07,2013-03-14 12:06:00,
2013-03-14 07:08:00,-3.7,-9.4,30.24,NE,41,0.0,0.0,76,0.00,,CLR,0.00,VWS V12.07,2013-03-14 12:08:00,
2013-03-14 07:09:00,-3.7,-9.4,30.24,NE,41,0.0,0.0,76,0.00,,CLR,0.00,VWS V12.07,2013-03-14 12:09:00,
2013-03-14 07:10:00,-3.7,-9.4,30.24,NE,41,0.0,0.0,76,0.00,,CLR,0.00,VWS V12.07,2013-03-14 12:10:00,
2013-03-14 07:12:00,-3.7,-9.1,30.24,NE,41,0.0,0.0,77,0.00,,CLR,0.00,VWS V12.07,2013-03-14 12:12:00,
2013-03-14 07:13:00,-3.7,-9.4,30.24,NE,41,0.0,0.0,76,0.00,,CLR,0.00,VWS V12.07,2013-03-14 12:13:00,
2013-03-14 07:14:00,-3.9,-9.5,30.25,NE,41,0.0,0.0,76,0.00,,CLR,0.00,VWS V12.07,2013-03-14 12:14:00,
2013-03-14 07:16:00,-3.9,-9.5,30.25,NE,41,0.0,0.0,76,0.00,,CLR,0.00,VWS V12.07,2013-03-14 12:16:00,
2013-03-14 07:18:00,-3.9,-9.5,30.25,NE,41,0.0,0.0,76,0.00,,CLR,0.00,VWS V12.07,2013-03-14 12:18:00,
2013-03-14 07:20:00,-3.9,-9.5,30.25,NE,41,0.0,0.0,76,0.00,,CLR,0.00,VWS V12.07,2013-03-14 12:20:00,
2013-03-14 07:21:00,-3.9,-9.5,30.25,NE,41,0.0,0.0,76,0.00,,CLR,0.00,VWS V12.07,2013-03-14 12:21:00,
2013-03-14 07:23:00,-4.1,-9.7,30.25,NE,41,0.0,0.0,76,0.00,,CLR,0.00,VWS V12.07,2013-03-14 12:23:00,
2013-03-14 07:24:00,-4.1,-9.7,30.25,NE,41,0.0,0.0,76,0.00,,CLR,0.00,VWS V12.07,2013-03-14 12:24:00,
2013-03-14 07:25:00,-4.1,-9.7,30.25,NE,41,0.0,0.0,76,0.00,,CLR,0.00,VWS V12.07,2013-03-14 12:25:00,
2013-03-14 07:26:00,-4.1,-9.7,30.25,NE,41,0.0,0.0,76,0.00,,CLR,0.00,VWS V12.07,2013-03-14 12:26:00,
2013-03-14 07:29:00,-4.1,-9.7,30.25,NE,41,0.0,0.0,76,0.00,,CLR,0.00,VWS V12.07,2013-03-14 12:29:00,
2013-03-14 07:30:00,-4.1,-9.7,30.25,NE,41,0.0,0.0,76,0.00,,CLR,0.00,VWS V12.07,2013-03-14 12:30:00,
2013-03-14 07:31:00,-4.1,-9.7,30.25,NE,41,0.0,0.0,76,0.00,,CLR,0.00,VWS V12.07,2013-03-14 12:31:00,
2013-03-14 07:34:00,-4.1,-9.7,30.25,NE,41,0.0,0.0,76,0.00,,CLR,0.00,VWS V12.07,2013-03-14 12:34:00,
2013-03-14 07:35:00,-4.3,-9.9,30.25,NE,41,0.0,0.0,76,0.00,,CLR,0.00,VWS V12.07,2013-03-14 12:35:00,
2013-03-14 07:36:00,-4.3,-9.9,30.25,NE,41,0.0,0.0,76,0.00,,CLR,0.00,VWS V12.07,2013-03-14 12:36:00,
2013-03-14 07:39:00,-4.3,-9.9,30.25,NE,41,0.0,0.0,76,0.00,,CLR,0.00,VWS V12.07,2013-03-14 12:39:00,
2013-03-14 07:40:00,-1.2,-6.4,30.25,NE,41,0.0,0.0,78,0.00,,CLR,0.00,VWS V12.07,2013-03-14 12:40:00,
2013-03-14 07:41:00,-4.3,-9.9,30.25,NE,41,0.0,0.0,76,0.00,,CLR,0.00,VWS V12.07,2013-03-14 12:41:00,
2013-03-14 07:42:00,-4.3,-9.9,30.25,NE,41,0.0,0.0,76,0.00,,CLR,0.00,VWS V12.07,2013-03-14 12:42:00,
2013-03-14 07:44:00,-4.3,-9.9,30.25,NE,41,0.0,0.0,76,0.00,,CLR,0.00,VWS V12.07,2013-03-14 12:44:00,
2013-03-14 07:46:00,-4.1,-9.7,30.25,NE,41,0.0,0.0,76,0.00,,CLR,0.00,VWS V12.07,2013-03-14 12:46:00,
2013-03-14 07:47:00,-4.1,-9.7,30.25,NE,41,0.0,0.0,76,0.00,,CLR,0.00,VWS V12.07,2013-03-14 12:47:00,
2013-03-14 07:49:00,-4.1,-9.5,30.25,NE,41,0.0,0.0,77,0.00,,CLR,0.00,VWS V12.07,2013-03-14 12:49:00,
2013-03-14 07:50:00,-4.1,-9.5,30.25,NE,41,0.0,0.0,77,0.00,,CLR,0.00,VWS V12.07,2013-03-14 12:50:00,
2013-03-14 07:51:00,-3.9,-9.3,30.25,NE,41,0.0,0.0,77,0.00,,CLR,0.00,VWS V12.07,2013-03-14 12:51:00,
2013-03-14 07:52:00,-3.9,-9.5,30.25,NE,41,0.0,0.0,76,0.00,,CLR,0.00,VWS V12.07,2013-03-14 12:52:00,
2013-03-14 07:55:00,-3.9,-9.5,30.25,NE,41,0.0,0.0,76,0.00,,CLR,0.00,VWS V12.07,2013-03-14 12:55:00,
2013-03-14 07:56:00,-3.9,-9.5,30.25,NE,41,0.0,0.0,76,0.00,,CLR,0.00,VWS V12.07,2013-03-14 12:56:00,
2013-03-14 07:57:00,-3.9,-9.5,30.25,NE,41,0.0,0.0,76,0.00,,CLR,0.00,VWS V12.07,2013-03-14 12:57:00,
2013-03-14 08:00:00,-3.9,-9.5,30.25,NE,41,0.0,0.0,76,0.00,,CLR,0.00,VWS V12.07,2013-03-14 13:00:00,
2013-03-14 08:01:00,-3.9,-9.5,30.25,NE,41,0.0,0.0,76,0.00,,CLR,0.00,VWS V12.07,2013-03-14 13:01:00,
2013-03-14 08:02:00,-3.9,-9.5,30.25,NE,41,0.0,0.0,76,0.00,,CLR,0.00,VWS V12.07,2013-03-14 13:02:00,
2013-03-14 08:03:00,-3.9,-9.5,30.25,NE,41,0.0,0.0,76,0.00,,CLR,0.00,VWS V12.07,2013-03-14 13:03:00,
2013-03-14 08:06:00,-3.9,-9.5,30.25,NE,41,0.0,0.0,76,0.00,,CLR,0.00,VWS V12.07,2013-03-14 13:06:00,
2013-03-14 08:08:00,-3.7,-9.4,30.25,NE,41,0.0,0.0,76,0.00,,CLR,0.00,VWS V12.07,2013-03-14 13:08:00,
2013-03-14 08:10:00,-3.5,-8.9,30.25,NE,41,0.0,0.0,77,0.00,,CLR,0.00,VWS V12.07,2013-03-14 13:10:00,
2013-03-14 08:12:00,-3.5,-8.9,30.25,NE,41,0.0,0.0,77,0.00,,CLR,0.00,VWS V12.07,2013-03-14 13:12:00,
2013-03-14 08:13:00,-3.3,-8.7,30.25,NE,41,0.0,0.0,77,0.00,,CLR,0.00,VWS V12.07,2013-03-14 13:13:00,
2013-03-14 08:15:00,-2.8,-8.2,30.25,NE,41,0.0,0.0,77,0.00,,CLR,0.00,VWS V12.07,2013-03-14 13:15:00,
2013-03-14 08:17:00,-2.6,-7.8,30.25,NE,41,0.0,0.0,78,0.00,,CLR,0.00,VWS V12.07,2013-03-14 13:17:00,
2013-03-14 08:18:00,-2.4,-7.6,30.25,NE,41,0.0,0.0,78,0.00,,CLR,0.00,VWS V12.07,2013-03-14 13:18:00,
2013-03-14 08:20:00,3.9,-3.4,30.25,NE,41,0.0,0.0,71,0.00,,CLR,0.00,VWS V12.07,2013-03-14 13:20:00,
2013-03-14 08:21:00,-1.8,-7.0,30.25,NE,41,0.0,0.0,78,0.00,,CLR,0.00,VWS V12.07,2013-03-14 13:21:00,
2013-03-14 08:23:00,-1.6,-6.8,30.25,NE,41,0.0,0.0,78,0.00,,CLR,0.00,VWS V12.07,2013-03-14 13:23:00,
2013-03-14 08:26:00,-1.0,-6.2,30.25,NE,41,0.0,0.0,78,0.00,,CLR,0.00,VWS V12.07,2013-03-14 13:26:00,
2013-03-14 08:28:00,-0.8,-6.0,30.25,NE,41,0.0,0.0,78,0.00,,CLR,0.00,VWS V12.07,2013-03-14 13:28:00,
2013-03-14 08:30:00,6.0,-1.1,30.24,NE,41,0.0,0.0,72,0.00,,CLR,0.00,VWS V12.07,2013-03-14 13:30:00,
2013-03-14 08:31:00,-0.2,-5.4,30.25,NE,41,0.0,0.0,78,0.00,,CLR,0.00,VWS V12.07,2013-03-14 13:31:00,
2013-03-14 08:33:00,-0.2,-5.2,30.25,NE,41,0.0,0.0,78,0.00,,CLR,0.00,VWS V12.07,2013-03-14 13:33:00,
2013-03-14 08:37:00,0.7,-4.0,30.25,NE,41,0.0,0.0,80,0.00,,CLR,0.00,VWS V12.07,2013-03-14 13:37:00,
2013-03-14 08:38:00,1.1,-3.6,30.25,NE,41,0.0,0.0,80,0.00,,CLR,0.00,VWS V12.07,2013-03-14 13:38:00,
2013-03-14 08:39:00,1.3,-3.4,30.25,NE,41,0.0,0.0,80,0.00,,CLR,0.00,VWS V12.07,2013-03-14 13:39:00,
2013-03-14 08:40:00,10.9,2.1,30.24,NE,41,0.0,0.0,67,0.00,,OVC033,0.00,VWS V12.07,2013-03-14 13:40:00,
2013-03-14 08:42:00,2.2,-2.8,30.25,NE,41,0.0,0.0,79,0.00,,CLR,0.00,VWS V12.07,2013-03-14 13:42:00,
2013-03-14 08:43:00,2.6,-2.7,30.25,NE,41,0.0,0.0,78,0.00,,CLR,0.00,VWS V12.07,2013-03-14 13:43:00,
2013-03-14 08:44:00,2.6,-2.7,30.25,NE,41,0.0,0.0,78,0.00,,CLR,0.00,VWS V12.07,2013-03-14 13:44:00,
2013-03-14 08:47:00,2.8,-3.0,30.24,NE,41,0.0,0.0,76,0.00,,CLR,0.00,VWS V12.07,2013-03-14 13:47:00,
2013-03-14 08:48:00,2.8,-3.3,30.24,NE,41,0.0,0.0,75,0.00,,CLR,0.00,VWS V12.07,2013-03-14 13:48:00,
2013-03-14 08:49:00,2.8,-3.3,30.24,NE,41,0.0,0.0,75,0.00,,CLR,0.00,VWS V12.07,2013-03-14 13:49:00,
2013-03-14 08:50:00,11.6,1.5,30.22,NE,41,0.0,0.0,63,0.00,,CLR,0.00,VWS V12.07,2013-03-14 13:50:00,
2013-03-14 08:52:00,2.6,-3.8,30.24,NE,41,0.0,0.0,74,0.00,,CLR,0.00,VWS V12.07,2013-03-14 13:52:00,
2013-03-14 08:53:00,2.6,-3.8,30.24,NE,41,0.0,0.0,74,0.00,,CLR,0.00,VWS V12.07,2013-03-14 13:53:00,
2013-03-14 08:54:00,2.6,-3.8,30.24,NE,41,0.0,0.0,74,0.00,,CLR,0.00,VWS V12.07,2013-03-14 13:54:00,
2013-03-14 08:57:00,3.0,-3.4,30.24,NE,41,0.0,0.0,74,0.00,,CLR,0.00,VWS V12.07,2013-03-14 13:57:00,
2013-03-14 08:58:00,3.2,-3.2,30.24,NE,41,0.0,0.0,74,0.00,,CLR,0.00,VWS V12.07,2013-03-14 13:58:00,
2013-03-14 08:59:00,3.4,-3.0,30.24,NE,41,0.0,0.0,74,0.00,,CLR,0.00,VWS V12.07,2013-03-14 13:59:00,
2013-03-14 09:00:00,3.4,-3.0,30.25,NE,41,0.0,0.0,74,0.00,,CLR,0.00,VWS V12.07,2013-03-14 14:00:00,
2013-03-14 09:02:00,3.7,-3.3,30.25,NE,41,0.0,0.0,72,0.00,,CLR,0.00,VWS V12.07,2013-03-14 14:02:00,
2013-03-14 09:04:00,3.7,-3.3,30.25,NE,41,0.0,0.0,72,0.00,,CLR,0.00,VWS V12.07,2013-03-14 14:04:00,
2013-03-14 09:05:00,3.9,-3.4,30.25,NE,41,0.0,0.0,71,0.00,,CLR,0.00,VWS V12.07,2013-03-14 14:05:00,
2013-03-14 09:08:00,4.1,-3.2,30.25,NE,41,0.0,0.0,71,0.00,,CLR,0.00,VWS V12.07,2013-03-14 14:08:00,
2013-03-14 09:09:00,4.3,-2.7,30.25,NE,41,0.0,0.0,72,0.00,,CLR,0.00,VWS V12.07,2013-03-14 14:09:00,
2013-03-14 09:10:00,4.5,-2.5,30.25,NE,41,0.0,0.0,72,0.00,,CLR,0.00,VWS V12.07,2013-03-14 14:10:00,
2013-03-14 09:14:00,5.6,-1.5,30.24,NE,41,0.0,0.0,72,0.00,,CLR,0.00,VWS V12.07,2013-03-14 14:14:00,
2013-03-14 09:16:00,6.3,-0.8,30.24,NE,41,0.0,0.0,72,0.00,,CLR,0.00,VWS V12.07,2013-03-14 14:16:00,
2013-03-14 09:19:00,7.9,1.4,30.24,NE,41,0.0,0.0,74,0.00,,CLR,0.00,VWS V12.07,2013-03-14 14:19:00,
2013-03-14 09:20:00,8.4,1.8,30.24,NE,41,0.0,0.0,74,0.00,,CLR,0.00,VWS V12.07,2013-03-14 14:20:00,
2013-03-14 09:22:00,9.9,3.0,30.24,NE,41,0.0,0.0,73,0.00,,CLR,0.00,VWS V12.07,2013-03-14 14:22:00,
2013-03-14 09:25:00,10.9,2.1,30.24,NE,41,0.0,0.0,67,0.00,,CLR,0.00,VWS V12.07,2013-03-14 14:25:00,
2013-03-14 09:26:00,11.1,2.0,30.24,NE,41,0.0,0.0,66,0.00,,CLR,0.00,VWS V12.07,2013-03-14 14:26:00,
2013-03-14 09:28:00,11.4,2.3,30.24,NE,41,0.0,0.0,66,0.00,,CLR,0.00,VWS V12.07,2013-03-14 14:28:00,
2013-03-14 09:30:00,19.1,7.9,30.19,SSW,200,1.0,1.0,61,0.00,,CLR,0.00,VWS V12.07,2013-03-14 14:30:00,
2013-03-14 09:31:00,11.4,1.6,30.22,NE,41,0.0,0.0,64,0.00,,CLR,0.00,VWS V12.07,2013-03-14 14:31:00,
2013-03-14 09:32:00,11.4,1.3,30.22,NE,41,0.0,0.0,63,0.00,,CLR,0.00,VWS V12.07,2013-03-14 14:32:00,
2013-03-14 09:33:00,11.4,1.3,30.22,NE,41,0.0,0.0,63,0.00,,CLR,0.00,VWS V12.07,2013-03-14 14:33:00,
2013-03-14 09:36:00,11.6,1.1,30.22,NE,41,0.0,0.0,62,0.00,,CLR,0.00,VWS V12.07,2013-03-14 14:36:00,
2013-03-14 09:37:00,11.7,0.9,30.22,NE,41,0.0,0.0,61,0.00,,CLR,0.00,VWS V12.07,2013-03-14 14:37:00,
2013-03-14 09:38:00,11.7,0.9,30.22,NE,41,0.0,0.0,61,0.00,,CLR,0.00,VWS V12.07,2013-03-14 14:38:00,
2013-03-14 09:40:00,20.3,8.6,30.19,SSE,162,0.0,3.0,60,0.00,,CLR,0.00,VWS V12.07,2013-03-14 14:40:00,
2013-03-14 09:41:00,12.3,1.8,30.22,NE,41,0.0,0.0,62,0.00,,CLR,0.00,VWS V12.07,2013-03-14 14:41:00,
2013-03-14 09:42:00,12.4,1.9,30.22,NE,41,0.0,0.0,62,0.00,,CLR,0.00,VWS V12.07,2013-03-14 14:42:00,
2013-03-14 09:43:00,12.6,2.1,30.22,NE,41,0.0,1.0,62,0.00,,CLR,0.00,VWS V12.07,2013-03-14 14:43:00,
2013-03-14 09:46:00,13.5,3.9,30.21,NE,41,0.0,1.0,65,0.00,,CLR,0.00,VWS V12.07,2013-03-14 14:46:00,
2013-03-14 09:48:00,13.6,4.4,30.21,NE,41,0.0,1.0,66,0.00,,CLR,0.00,VWS V12.07,2013-03-14 14:48:00,
2013-03-14 09:50:00,21.9,9.0,30.18,South,186,0.0,2.0,57,0.00,,CLR,0.00,VWS V12.07,2013-03-14 14:50:00,
2013-03-14 09:53:00,15.2,5.6,30.21,SSW,200,1.0,2.0,65,0.00,,CLR,0.00,VWS V12.07,2013-03-14 14:53:00,
2013-03-14 09:54:00,15.4,5.8,30.21,SSW,200,0.0,2.0,65,0.00,,CLR,0.00,VWS V12.07,2013-03-14 14:54:00,
2013-03-14 09:58:00,16.5,6.8,30.21,SSW,200,0.0,0.0,65,0.00,,CLR,0.00,VWS V12.07,2013-03-14 14:58:00,
2013-03-14 09:59:00,16.9,6.8,30.21,SSW,200,0.0,1.0,64,0.00,,CLR,0.00,VWS V12.07,2013-03-14 14:59:00,
2013-03-14 10:00:00,23.5,10.5,30.16,South,182,2.0,4.0,57,0.00,,CLR,0.00,VWS V12.07,2013-03-14 15:00:00,
2013-03-14 10:04:00,17.7,7.6,30.21,SSW,201,0.0,1.0,64,0.00,,CLR,0.00,VWS V12.07,2013-03-14 15:04:00,
2013-03-14 10:05:00,17.8,7.3,30.21,SSW,201,0.0,1.0,63,0.00,,CLR,0.00,VWS V12.07,2013-03-14 15:05:00,
2013-03-14 10:09:00,18.3,7.5,30.21,SSW,201,0.0,1.0,62,0.00,,CLR,0.00,VWS V12.07,2013-03-14 15:09:00,
2013-03-14 10:10:00,18.3,7.5,30.21,SSW,201,0.0,1.0,62,0.00,,CLR,0.00,VWS V12.07,2013-03-14 15:10:00,
2013-03-14 10:14:00,18.9,8.1,30.21,SSW,201,1.0,1.0,62,0.00,,CLR,0.00,VWS V12.07,2013-03-14 15:14:00,
2013-03-14 10:15:00,19.1,8.2,30.19,SSW,200,0.0,1.0,62,0.00,,CLR,0.00,VWS V12.07,2013-03-14 15:15:00,
2013-03-14 10:19:00,19.7,8.4,30.19,SSE,162,1.0,3.0,61,0.00,,CLR,0.00,VWS V12.07,2013-03-14 15:19:00,
2013-03-14 10:20:00,19.7,8.4,30.19,SSE,162,1.0,3.0,61,0.00,,CLR,0.00,VWS V12.07,2013-03-14 15:20:00,
2013-03-14 10:24:00,20.3,8.6,30.19,SSE,162,1.0,3.0,60,0.00,,CLR,0.00,VWS V12.07,2013-03-14 15:24:00,
2013-03-14 10:25:00,20.3,8.6,30.19,SSE,162,0.0,3.0,60,0.00,,CLR,0.00,VWS V12.07,2013-03-14 15:25:00,
2013-03-14 10:29:00,21.0,8.9,30.18,SSE,162,0.0,2.0,59,0.00,,CLR,0.00,VWS V12.07,2013-03-14 15:29:00,
2013-03-14 10:30:00,21.1,9.0,30.18,SSE,162,0.0,2.0,59,0.00,,CLR,0.00,VWS V12.07,2013-03-14 15:30:00,
2013-03-14 10:34:00,21.8,8.9,30.18,South,186,1.0,2.0,57,0.00,,CLR,0.00,VWS V12.07,2013-03-14 15:34:00,
2013-03-14 10:35:00,21.9,9.0,30.18,South,186,0.0,2.0,57,0.00,,CLR,0.00,VWS V12.07,2013-03-14 15:35:00,
2013-03-14 10:36:00,22.1,9.2,30.18,South,186,0.0,2.0,57,0.00,,CLR,0.00,VWS V12.07,2013-03-14 15:36:00,
2013-03-14 10:40:00,22.7,10.2,30.18,South,170,0.0,3.0,58,0.00,,CLR,0.00,VWS V12.07,2013-03-14 15:40:00,
2013-03-14 10:41:00,23.0,10.1,30.18,South,170,1.0,3.0,57,0.00,,CLR,0.00,VWS V12.07,2013-03-14 15:41:00,
2013-03-14 10:45:00,23.5,10.5,30.16,South,182,3.0,4.0,57,0.00,,CLR,0.00,VWS V12.07,2013-03-14 15:45:00,
2013-03-14 10:46:00,23.6,10.6,30.16,South,182,2.0,4.0,57,0.00,,CLR,0.00,VWS V12.07,2013-03-14 15:46:00,
2013-03-14 10:50:00,24.1,11.1,30.16,South,182,1.0,3.0,57,0.00,,CLR,0.00,VWS V12.07,2013-03-14 15:50:00,
2013-03-14 10:52:00,24.2,11.2,30.16,South,182,1.0,3.0,57,0.00,,CLR,0.00,VWS V12.07,2013-03-14 15:52:00,
2013-03-14 10:55:00,24.2,11.2,30.16,South,181,2.0,3.0,57,0.00,,CLR,0.00,VWS V12.07,2013-03-14 15:55:00,
2013-03-14 10:56:00,24.2,11.2,30.16,South,181,1.0,3.0,57,0.00,,CLR,0.00,VWS V12.07,2013-03-14 15:56:00,
2013-03-14 10:57:00,24.2,11.2,30.16,South,181,2.0,3.0,57,0.00,,CLR,0.00,VWS V12.07,2013-03-14 15:57:00,
2013-03-14 11:00:00,24.5,10.7,30.16,South,181,1.0,3.0,55,0.00,,CLR,0.00,VWS V12.07,2013-03-14 16:00:00,
2013-03-14 11:01:00,24.7,11.2,30.16,South,191,1.0,4.0,56,0.00,,CLR,0.00,VWS V12.07,2013-03-14 16:01:00,
2013-03-14 11:02:00,24.7,11.2,30.16,South,184,1.0,4.0,56,0.00,,CLR,0.00,VWS V12.07,2013-03-14 16:02:00,
2013-03-14 11:03:00,24.7,11.2,30.16,South,184,3.0,4.0,56,0.00,,CLR,0.00,VWS V12.07,2013-03-14 16:03:00,
2013-03-14 11:05:00,25.0,11.5,30.16,South,184,0.0,4.0,56,0.00,,CLR,0.00,VWS V12.07,2013-03-14 16:05:00,
2013-03-14 11:07:00,25.1,12.0,30.16,South,184,1.0,2.0,57,0.00,,CLR,0.00,VWS V12.07,2013-03-14 16:07:00,
2013-03-14 11:08:00,25.4,12.3,30.16,South,184,2.0,2.0,57,0.00,,CLR,0.00,VWS V12.07,2013-03-14 16:08:00,
2013-03-14 11:10:00,29.8,13.4,30.14,South,180,3.0,4.0,50,0.00,,CLR,0.00,VWS V12.07,2013-03-14 16:10:00,
2013-03-14 11:11:00,25.8,11.5,30.16,South,176,1.0,5.0,54,0.00,,CLR,0.00,VWS V12.07,2013-03-14 16:11:00,
2013-03-14 11:12:00,26.0,11.6,30.16,South,176,2.0,5.0,54,0.00,,CLR,0.00,VWS V12.07,2013-03-14 16:12:00,
2013-03-14 11:13:00,26.0,11.6,30.16,South,176,1.0,5.0,54,0.00,,CLR,0.00,VWS V12.07,2013-03-14 16:13:00,
2013-03-14 11:17:00,26.3,11.9,30.16,SSE,158,1.0,2.0,54,0.00,,CLR,0.00,VWS V12.07,2013-03-14 16:17:00,
2013-03-14 11:18:00,26.3,11.9,30.16,SSE,158,2.0,3.0,54,0.00,,CLR,0.00,VWS V12.07,2013-03-14 16:18:00,
2013-03-14 11:19:00,26.4,11.6,30.16,SSE,158,2.0,4.0,53,0.00,,CLR,0.00,VWS V12.07,2013-03-14 16:19:00,
2013-03-14 11:20:00,30.1,15.1,30.14,SSE,162,2.0,4.0,53,0.00,,OVC033,0.00,VWS V12.07,2013-03-14 16:20:00,
2013-03-14 11:22:00,26.6,12.6,30.16,SSE,160,0.0,4.0,55,0.00,,CLR,0.00,VWS V12.07,2013-03-14 16:22:00,
2013-03-14 11:23:00,26.7,12.3,30.16,SSE,155,4.0,4.0,54,0.00,,CLR,0.00,VWS V12.07,2013-03-14 16:23:00,
2013-03-14 11:24:00,26.7,11.4,30.16,SSE,155,3.0,4.0,52,0.00,,CLR,0.00,VWS V12.07,2013-03-14 16:24:00,
2013-03-14 11:27:00,26.9,12.1,30.16,SSE,159,3.0,4.0,53,0.00,,CLR,0.00,VWS V12.07,2013-03-14 16:27:00,
2013-03-14 11:28:00,27.2,12.4,30.16,SSE,159,2.0,3.0,53,0.00,,CLR,0.00,VWS V12.07,2013-03-14 16:28:00,
2013-03-14 11:29:00,27.5,12.6,30.16,SSE,159,2.0,3.0,53,0.00,,CLR,0.00,VWS V12.07,2013-03-14 16:29:00,
2013-03-14 11:30:00,30.6,12.3,30.14,South,172,2.0,5.0,46,0.00,,OVC033,0.00,VWS V12.07,2013-03-14 16:30:00,
2013-03-14 11:32:00,27.8,12.5,30.16,SSE,161,1.0,3.0,52,0.00,,CLR,0.00,VWS V12.07,2013-03-14 16:32:00,
2013-03-14 11:33:00,27.9,13.4,30.16,SSE,160,3.0,3.0,54,0.00,,CLR,0.00,VWS V12.07,2013-03-14 16:33:00,
2013-03-14 11:34:00,27.9,12.1,30.16,SSE,160,2.0,3.0,51,0.00,,CLR,0.00,VWS V12.07,2013-03-14 16:34:00,
2013-03-14 11:37:00,28.2,12.9,30.16,SSE,160,1.0,3.0,52,0.00,,CLR,0.00,VWS V12.07,2013-03-14 16:37:00,
2013-03-14 11:38:00,28.5,13.6,30.16,SSE,160,1.0,3.0,53,0.00,,CLR,0.00,VWS V12.07,2013-03-14 16:38:00,
2013-03-14 11:39:00,28.7,14.2,30.16,SSE,160,1.0,3.0,54,0.00,,CLR,0.00,VWS V12.07,2013-03-14 16:39:00,
2013-03-14 11:40:00,28.8,14.3,30.16,SSE,160,1.0,3.0,54,0.00,,CLR,0.00,VWS V12.07,2013-03-14 16:40:00,
2013-03-14 11:42:00,29.1,14.5,30.16,SSE,160,2.0,3.0,54,0.00,,CLR,0.00,VWS V12.07,2013-03-14 16:42:00,
2013-03-14 11:44:00,29.3,14.3,30.14,South,176,2.0,3.0,53,0.00,,CLR,0.00,VWS V12.07,2013-03-14 16:44:00,
2013-03-14 11:45:00,29.3,13.0,30.14,South,176,0.0,3.0,50,0.00,,CLR,0.00,VWS V12.07,2013-03-14 16:45:00,
2013-03-14 11:47:00,29.5,13.6,30.14,South,176,0.0,3.0,51,0.00,,CLR,0.00,VWS V12.07,2013-03-14 16:47:00,
2013-03-14 11:49:00,29.5,12.7,30.14,South,176,2.0,3.0,49,0.00,,CLR,0.00,VWS V12.07,2013-03-14 16:49:00,
2013-03-14 11:50:00,29.5,13.6,30.14,South,176,2.0,3.0,51,0.00,,CLR,0.00,VWS V12.07,2013-03-14 16:50:00,
2013-03-14 11:52:00,29.7,13.8,30.14,South,179,0.0,3.0,51,0.00,,CLR,0.00,VWS V12.07,2013-03-14 16:52:00,
2013-03-14 11:54:00,29.8,14.8,30.14,South,179,2.0,3.0,53,0.00,,CLR,0.00,VWS V12.07,2013-03-14 16:54:00,
2013-03-14 11:55:00,29.8,13.4,30.14,South,179,3.0,3.0,50,0.00,,CLR,0.00,VWS V12.07,2013-03-14 16:55:00,
2013-03-14 11:58:00,29.8,13.0,30.14,South,179,2.0,4.0,49,0.00,,CLR,0.00,VWS V12.07,2013-03-14 16:58:00,
2013-03-14 12:00:00,30.0,15.4,30.14,South,179,2.0,3.0,54,0.00,,CLR,0.00,VWS V12.07,2013-03-14 17:00:00,
2013-03-14 12:03:00,30.1,14.2,30.14,SSE,156,2.0,4.0,51,0.00,,CLR,0.00,VWS V12.07,2013-03-14 17:03:00,
2013-03-14 12:10:00,32.1,12.7,30.12,South,189,3.0,5.0,44,0.00,,OVC033,0.00,VWS V12.07,2013-03-14 17:10:00,
2013-03-14 12:20:00,32.4,11.9,30.13,SSW,202,3.0,5.0,42,0.00,,OVC033,0.00,VWS V12.07,2013-03-14 17:20:00,
2013-03-14 12:30:00,32.2,14.2,30.14,SW,225,2.0,5.0,47,0.00,,OVC033,0.00,VWS V12.07,2013-03-14 17:30:00,
2013-03-14 12:40:00,33.2,14.7,30.14,SW,225,2.0,4.0,46,0.00,,OVC033,0.00,VWS V12.07,2013-03-14 17:40:00,
2013-03-14 12:50:00,33.7,14.6,30.12,SSW,202,2.0,5.0,45,0.00,,OVC033,0.00,VWS V12.07,2013-03-14 17:50:00,
2013-03-14 13:00:00,32.4,12.9,30.13,SSW,198,2.0,5.0,44,0.00,,CLR,0.00,VWS V12.07,2013-03-14 18:00:00,
2013-03-14 13:10:00,34.3,15.2,30.10,South,180,3.0,6.0,45,0.00,,OVC033,0.00,VWS V12.07,2013-03-14 18:10:00,
2013-03-14 13:20:00,35.0,18.2,30.11,SSW,202,3.0,5.0,50,0.00,,OVC033,0.00,VWS V12.07,2013-03-14 18:20:00,
2013-03-14 13:30:00,34.9,15.2,30.11,SSW,202,3.0,9.0,44,0.00,,OVC033,0.00,VWS V12.07,2013-03-14 18:30:00,
2013-03-14 13:40:00,34.7,17.0,30.11,SSW,202,2.0,6.0,48,0.00,,OVC033,0.00,VWS V12.07,2013-03-14 18:40:00,
2013-03-14 13:50:00,34.6,17.4,30.12,SW,225,2.0,6.0,49,0.00,,OVC033,0.00,VWS V12.07,2013-03-14 18:50:00,
2013-03-14 14:00:00,34.7,18.4,30.11,SSW,202,3.0,6.0,51,0.00,,OVC033,0.00,VWS V12.07,2013-03-14 19:00:00,
2013-03-14 14:10:00,34.7,18.0,30.11,SSW,202,3.0,6.0,50,0.00,,OVC033,0.00,VWS V12.07,2013-03-14 19:10:00,
2013-03-14 14:20:00,34.3,18.1,30.11,SSW,202,3.0,8.0,51,0.00,,OVC033,0.00,VWS V12.07,2013-03-14 19:20:00,
2013-03-14 14:30:00,34.1,19.6,30.10,SSW,202,3.0,5.0,55,0.00,,OVC033,0.00,VWS V12.07,2013-03-14 19:30:00,
2013-03-14 14:40:00,34.1,17.9,30.10,SSW,202,3.0,7.0,51,0.00,,OVC033,0.00,VWS V12.07,2013-03-14 19:40:00,
2013-03-14 14:50:00,34.1,17.9,30.10,SW,225,3.0,10.0,51,0.00,,OVC033,0.00,VWS V12.07,2013-03-14 19:50:00,
2013-03-14 15:00:00,34.0,19.1,30.09,SSW,202,3.0,7.0,54,0.00,,OVC033,0.00,VWS V12.07,2013-03-14 20:00:00,
2013-03-14 15:10:00,33.7,20.9,30.09,SW,225,2.0,5.0,59,0.00,,OVC033,0.00,VWS V12.07,2013-03-14 20:10:00,
2013-03-14 15:20:00,33.5,20.7,30.06,SW,225,3.0,6.0,59,0.00,,OVC033,0.00,VWS V12.07,2013-03-14 20:20:00,
2013-03-14 15:30:00,33.4,21.8,30.07,SW,225,2.0,6.0,62,0.00,,OVC033,0.00,VWS V12.07,2013-03-14 20:30:00,
2013-03-14 15:40:00,33.5,21.5,30.07,SSW,202,3.0,6.0,61,0.00,,OVC033,0.00,VWS V12.07,2013-03-14 20:40:00,
2013-03-14 15:50:00,33.5,21.5,30.06,SSW,202,3.0,5.0,61,0.00,,OVC033,0.00,VWS V12.07,2013-03-14 20:50:00,
2013-03-14 16:00:00,33.5,21.5,30.06,SW,225,2.0,6.0,61,0.00,,OVC033,0.00,VWS V12.07,2013-03-14 21:00:00,
2013-03-14 16:10:00,33.4,22.5,30.06,SSW,202,2.0,4.0,64,0.00,,OVC033,0.00,VWS V12.07,2013-03-14 21:10:00,
2013-03-14 16:20:00,33.1,23.7,30.07,SW,225,2.0,4.0,68,0.00,,OVC033,0.00,VWS V12.07,2013-03-14 21:20:00,
2013-03-14 16:30:00,33.1,23.4,30.07,SW,225,2.0,5.0,67,0.00,,OVC033,0.00,VWS V12.07,2013-03-14 21:30:00,
2013-03-14 16:40:00,33.2,23.1,30.07,SW,225,3.0,9.0,66,0.00,,OVC033,0.00,VWS V12.07,2013-03-14 21:40:00,
2013-03-14 16:50:00,32.9,23.2,30.05,SW,225,2.0,4.0,67,0.00,,OVC033,0.00,VWS V12.07,2013-03-14 21:50:00,
2013-03-14 17:00:00,32.4,23.0,30.05,SW,225,2.0,5.0,68,0.00,,OVC033,0.00,VWS V12.07,2013-03-14 22:00:00,
2013-03-14 17:10:00,32.1,23.4,30.05,SSW,209,3.0,4.0,70,0.00,,OVC033,0.00,VWS V12.07,2013-03-14 22:10:00,
2013-03-14 17:20:00,31.9,23.6,30.05,South,188,2.0,5.0,71,0.00,,OVC033,0.00,VWS V12.07,2013-03-14 22:20:00,
2013-03-14 17:30:00,32.1,23.4,30.04,SW,215,3.0,6.0,70,0.00,,OVC033,0.00,VWS V12.07,2013-03-14 22:30:00,
2013-03-14 17:40:00,31.9,23.9,30.04,SSW,210,3.0,5.0,72,0.00,,OVC033,0.00,VWS V12.07,2013-03-14 22:40:00,
2013-03-14 17:45:00,32.4,11.9,30.13,SSW,202,3.0,5.0,42,0.00,,CLR,0.00,VWS V12.07,2013-03-14 22:45:00,
2013-03-14 17:47:00,33.2,23.1,30.07,SW,225,3.0,10.0,66,0.00,,CLR,0.00,VWS V12.07,2013-03-14 22:47:00,
2013-03-14 17:50:00,32.1,23.4,30.05,SW,220,3.0,10.0,70,0.00,,OVC033,0.00,VWS V12.07,2013-03-14 22:50:00,
2013-03-14 17:51:00,32.1,23.4,30.05,SW,220,2.0,10.0,70,0.00,,OVC033,0.00,VWS V12.07,2013-03-14 22:51:00,
2013-03-14 17:52:00,32.1,23.4,30.05,SW,220,1.0,10.0,70,0.00,,OVC033,0.00,VWS V12.07,2013-03-14 22:52:00,
2013-03-14 17:53:00,32.1,23.4,30.05,SSW,207,2.0,10.0,70,0.00,,OVC033,0.00,VWS V12.07,2013-03-14 22:53:00,
2013-03-14 17:56:00,32.1,23.4,30.05,SSW,207,2.0,4.0,70,0.00,,OVC033,0.00,VWS V12.07,2013-03-14 22:56:00,
2013-03-14 17:57:00,32.1,23.4,30.05,SSW,207,2.0,4.0,70,0.00,,OVC033,0.00,VWS V12.07,2013-03-14 22:57:00,
2013-03-14 17:58:00,32.1,23.4,30.05,SSW,207,2.0,4.0,70,0.00,,OVC033,0.00,VWS V12.07,2013-03-14 22:58:00,
2013-03-14 18:00:00,31.9,24.6,30.02,SW,224,3.0,5.0,74,0.00,,OVC031,0.00,VWS V12.07,2013-03-14 23:00:00,
2013-03-14 18:01:00,32.1,23.4,30.05,SSW,203,2.0,4.0,70,0.00,,OVC033,0.00,VWS V12.07,2013-03-14 23:01:00,
2013-03-14 18:03:00,32.1,23.4,30.05,SW,216,2.0,4.0,70,0.00,,OVC033,0.00,VWS V12.07,2013-03-14 23:03:00,
2013-03-14 18:06:00,31.9,23.6,30.05,SSW,203,3.0,5.0,71,0.00,,OVC033,0.00,VWS V12.07,2013-03-14 23:06:00,
2013-03-14 18:08:00,31.9,23.2,30.05,SW,223,3.0,5.0,70,0.00,,OVC033,0.00,VWS V12.07,2013-03-14 23:08:00,
2013-03-14 18:10:00,31.5,24.2,30.02,WSW,248,3.0,5.0,74,0.00,,OVC027,0.00,VWS V12.07,2013-03-14 23:10:00,
2013-03-14 18:11:00,31.9,23.6,30.05,SW,221,2.0,4.0,71,0.00,,OVC033,0.00,VWS V12.07,2013-03-14 23:11:00,
2013-03-14 18:13:00,31.9,23.2,30.05,SSW,193,3.0,4.0,70,0.00,,OVC033,0.00,VWS V12.07,2013-03-14 23:13:00,
2013-03-14 18:14:00,32.1,23.4,30.04,SW,224,2.0,6.0,70,0.00,,OVC033,0.00,VWS V12.07,2013-03-14 23:14:00,
2013-03-14 18:17:00,32.1,23.4,30.04,SW,216,3.0,4.0,70,0.00,,OVC033,0.00,VWS V12.07,2013-03-14 23:17:00,
2013-03-14 18:18:00,32.1,23.4,30.04,SW,215,3.0,5.0,70,0.00,,OVC033,0.00,VWS V12.07,2013-03-14 23:18:00,
2013-03-14 18:19:00,32.1,23.8,30.04,SW,218,3.0,5.0,71,0.00,,OVC033,0.00,VWS V12.07,2013-03-14 23:19:00,
2013-03-14 18:20:00,31.5,24.8,30.03,SW,229,1.0,10.0,76,0.00,,OVC023,0.00,VWS V12.07,2013-03-14 23:20:00,
2013-03-14 18:22:00,31.9,23.6,30.04,SW,231,1.0,5.0,71,0.00,,OVC033,0.00,VWS V12.07,2013-03-14 23:22:00,
2013-03-14 18:23:00,31.9,23.6,30.04,SW,231,2.0,5.0,71,0.00,,OVC033,0.00,VWS V12.07,2013-03-14 23:23:00,
2013-03-14 18:24:00,31.9,23.9,30.04,SW,231,2.0,5.0,72,0.00,,OVC033,0.00,VWS V12.07,2013-03-14 23:24:00,
2013-03-14 18:25:00,31.9,23.9,30.04,SSW,210,3.0,5.0,72,0.00,,OVC033,0.00,VWS V12.07,2013-03-14 23:25:00,
2013-03-14 18:28:00,31.9,23.9,30.04,SW,217,3.0,5.0,72,0.00,,OVC033,0.00,VWS V12.07,2013-03-14 23:28:00,
2013-03-14 18:29:00,31.9,23.9,30.04,SW,224,4.0,5.0,72,0.00,,OVC033,0.00,VWS V12.07,2013-03-14 23:29:00,
2013-03-14 18:30:00,31.9,23.6,30.04,SSW,200,3.0,5.0,71,0.00,,OVC033,0.00,VWS V12.07,2013-03-14 23:30:00,
2013-03-14 18:33:00,31.9,23.9,30.04,SSW,206,2.0,5.0,72,0.00,,OVC033,0.00,VWS V12.07,2013-03-14 23:33:00,
2013-03-14 18:34:00,31.9,24.2,30.04,SSW,206,3.0,5.0,73,0.00,,OVC031,0.00,VWS V12.07,2013-03-14 23:34:00,
2013-03-14 18:35:00,31.9,24.2,30.04,SSW,206,2.0,5.0,73,0.00,,OVC031,0.00,VWS V12.07,2013-03-14 23:35:00,
2013-03-14 18:38:00,31.9,24.2,30.04,SSW,207,1.0,4.0,73,0.00,,OVC031,0.00,VWS V12.07,2013-03-14 23:38:00,
2013-03-14 18:39:00,31.9,24.2,30.04,SSW,195,3.0,5.0,73,0.00,,OVC031,0.00,VWS V12.07,2013-03-14 23:39:00,
2013-03-14 18:40:00,31.0,24.3,30.03,SW,221,0.0,3.0,76,0.00,,OVC023,0.00,VWS V12.07,2013-03-14 23:40:00,
2013-03-14 18:41:00,31.9,24.2,30.04,SW,221,2.0,5.0,73,0.00,,OVC031,0.00,VWS V12.07,2013-03-14 23:41:00,
2013-03-14 18:44:00,31.9,24.2,30.04,SW,217,3.0,5.0,73,0.00,,OVC031,0.00,VWS V12.07,2013-03-14 23:44:00,
2013-03-14 18:45:00,31.9,24.6,30.02,SW,221,3.0,5.0,74,0.00,,OVC031,0.00,VWS V12.07,2013-03-14 23:45:00,
2013-03-14 18:47:00,31.8,24.5,30.02,SW,221,1.0,3.0,74,0.00,,OVC031,0.00,VWS V12.07,2013-03-14 23:47:00,
2013-03-14 18:49:00,31.8,24.5,30.02,SW,221,4.0,4.0,74,0.00,,OVC031,0.00,VWS V12.07,2013-03-14 23:49:00,
2013-03-14 18:50:00,31.8,24.5,30.02,SW,214,2.0,4.0,74,0.00,,OVC031,0.00,VWS V12.07,2013-03-14 23:50:00,
2013-03-14 18:52:00,31.5,24.2,30.02,SW,221,3.0,4.0,74,0.00,,OVC027,0.00,VWS V12.07,2013-03-14 23:52:00,
2013-03-14 18:54:00,31.5,24.2,30.02,SSW,210,3.0,5.0,74,0.00,,OVC027,0.00,VWS V12.07,2013-03-14 23:54:00,
2013-03-14 18:55:00,31.5,24.2,30.02,SSW,207,4.0,5.0,74,0.00,,OVC027,0.00,VWS V12.07,2013-03-14 23:55:00,
2013-03-14 18:58:00,31.5,24.2,30.02,SW,224,2.0,7.0,74,0.00,,OVC031,0.00,VWS V12.07,2013-03-14 23:58:00,
2013-03-14 18:59:00,31.3,24.3,30.03,SW,215,3.0,7.0,75,0.00,,OVC027,0.00,VWS V12.07,2013-03-14 23:59:00,
2013-03-14 19:00:00,31.3,24.3,30.03,SW,226,4.0,7.0,75,0.00,,OVC027,0.00,VWS V12.07,2013-03-15 00:00:00,
2013-03-14 19:03:00,31.3,24.6,30.03,WSW,238,3.0,10.0,76,0.00,,OVC027,0.00,VWS V12.07,2013-03-15 00:03:00,
2013-03-14 19:04:00,31.3,24.6,30.03,SW,229,3.0,10.0,76,0.00,,OVC027,0.00,VWS V12.07,2013-03-15 00:04:00,
2013-03-14 19:05:00,31.5,24.8,30.03,SW,229,3.0,10.0,76,0.00,,OVC027,0.00,VWS V12.07,2013-03-15 00:05:00,
2013-03-14 19:08:00,31.5,24.8,30.03,SW,215,3.0,10.0,76,0.00,,OVC027,0.00,VWS V12.07,2013-03-15 00:08:00,
2013-03-14 19:09:00,31.5,24.8,30.03,SSW,210,2.0,6.0,76,0.00,,OVC023,0.00,VWS V12.07,2013-03-15 00:09:00,
2013-03-14 19:10:00,31.3,24.6,30.03,SW,236,1.0,6.0,76,0.00,,OVC023,0.00,VWS V12.07,2013-03-15 00:10:00,
2013-03-14 19:13:00,31.3,24.6,30.03,SW,235,1.0,6.0,76,0.00,,OVC023,0.00,VWS V12.07,2013-03-15 00:13:00,
2013-03-14 19:14:00,31.3,24.6,30.03,SW,219,1.0,6.0,76,0.00,,OVC023,0.00,VWS V12.07,2013-03-15 00:14:00,
2013-03-14 19:15:00,31.3,24.6,30.03,SW,219,2.0,6.0,76,0.00,,OVC023,0.00,VWS V12.07,2013-03-15 00:15:00,
2013-03-14 19:18:00,31.2,24.5,30.03,SW,220,1.0,6.0,76,0.00,,OVC023,0.00,VWS V12.07,2013-03-15 00:18:00,
2013-03-14 19:19:00,31.2,24.5,30.03,SW,220,0.0,2.0,76,0.00,,OVC023,0.00,VWS V12.07,2013-03-15 00:19:00,
2013-03-14 19:20:00,31.2,24.5,30.03,SW,220,2.0,2.0,76,0.00,,OVC023,0.00,VWS V12.07,2013-03-15 00:20:00,
2013-03-14 19:23:00,31.0,24.3,30.03,SW,221,2.0,3.0,76,0.00,,OVC023,0.00,VWS V12.07,2013-03-15 00:23:00,
2013-03-14 19:25:00,31.0,24.3,30.03,SW,221,1.0,3.0,76,0.00,,OVC023,0.00,VWS V12.07,2013-03-15 00:25:00,
2013-03-14 19:26:00,31.0,24.3,30.03,SW,221,0.0,3.0,76,0.00,,OVC023,0.00,VWS V12.07,2013-03-15 00:26:00,
2013-03-14 19:28:00,30.9,24.5,30.03,SW,221,1.0,2.0,77,0.00,,OVC023,0.00,VWS V12.07,2013-03-15 00:28:00,
2013-03-14 19:30:00,30.7,24.4,30.03,SW,221,2.0,3.0,77,0.00,,OVC023,0.00,VWS V12.07,2013-03-15 00:30:00,
2013-03-14 19:31:00,30.7,24.4,30.03,SW,221,2.0,3.0,77,0.00,,OVC023,0.00,VWS V12.07,2013-03-15 00:31:00,
2013-03-14 19:33:00,30.7,24.4,30.03,SW,221,1.0,3.0,77,0.00,,OVC023,0.00,VWS V12.07,2013-03-15 00:33:00,
2013-03-14 19:35:00,30.6,24.3,30.03,SW,221,2.0,3.0,77,0.00,,OVC023,0.00,VWS V12.07,2013-03-15 00:35:00,
2013-03-14 19:36:00,30.6,24.3,30.03,SW,221,2.0,3.0,77,0.00,,OVC023,0.00,VWS V12.07,2013-03-15 00:36:00,
2013-03-14 19:37:00,30.6,24.3,30.03,SW,221,1.0,3.0,77,0.00,,OVC023,0.00,VWS V12.07,2013-03-15 00:37:00,
2013-03-14 19:38:00,30.6,24.3,30.03,SW,228,2.0,3.0,77,0.00,,OVC023,0.00,VWS V12.07,2013-03-15 00:38:00,
2013-03-14 19:40:00,30.4,24.1,30.03,SW,228,2.0,3.0,77,0.00,,OVC023,0.00,VWS V12.07,2013-03-15 00:40:00,
2013-03-14 19:41:00,30.4,24.1,30.03,WSW,242,1.0,3.0,77,0.00,,OVC023,0.00,VWS V12.07,2013-03-15 00:41:00,
2013-03-14 19:42:00,30.4,24.1,30.03,WSW,242,2.0,3.0,77,0.00,,OVC023,0.00,VWS V12.07,2013-03-15 00:42:00,
2013-03-14 19:44:00,30.3,24.3,30.03,WSW,241,0.0,3.0,78,0.00,,OVC023,0.00,VWS V12.07,2013-03-15 00:44:00,
2013-03-14 19:46:00,30.3,24.3,30.04,WSW,241,1.0,3.0,78,0.00,,OVC023,0.00,VWS V12.07,2013-03-15 00:46:00,
2013-03-14 19:47:00,30.3,24.3,30.04,WSW,241,0.0,3.0,78,0.00,,OVC023,0.00,VWS V12.07,2013-03-15 00:47:00,
2013-03-14 19:49:00,30.1,24.1,30.04,WSW,241,2.0,3.0,78,0.00,,OVC023,0.00,VWS V12.07,2013-03-15 00:49:00,
2013-03-14 19:50:00,29.0,24.2,30.01,SW,220,2.0,3.0,82,0.00,,SCT019,0.00,VWS V12.07,2013-03-15 00:50:00,
2013-03-14 19:51:00,30.1,24.4,30.04,WSW,241,1.0,3.0,79,0.00,,BKN021,0.00,VWS V12.07,2013-03-15 00:51:00,
2013-03-14 19:52:00,30.0,24.3,30.04,WSW,241,1.0,3.0,79,0.00,,BKN021,0.00,VWS V12.07,2013-03-15 00:52:00,
2013-03-14 19:54:00,30.0,24.3,30.04,WSW,240,2.0,3.0,79,0.00,,BKN021,0.00,VWS V12.07,2013-03-15 00:54:00,
2013-03-14 19:56:00,30.0,24.3,30.04,WSW,240,0.0,3.0,79,0.00,,BKN021,0.00,VWS V12.07,2013-03-15 00:56:00,
2013-03-14 19:58:00,30.0,24.3,30.04,WSW,240,0.0,3.0,79,0.00,,BKN021,0.00,VWS V12.07,2013-03-15 00:58:00,
2013-03-14 19:59:00,30.0,24.3,30.04,WSW,240,0.0,2.0,79,0.00,,BKN021,0.00,VWS V12.07,2013-03-15 00:59:00,
2013-03-14 20:00:00,28.5,23.7,30.00,SSW,210,3.0,3.0,82,0.00,,SCT019,0.00,VWS V12.07,2013-03-15 01:00:00,
2013-03-14 20:01:00,29.8,24.4,30.02,WSW,240,1.0,2.0,80,0.00,,BKN021,0.00,VWS V12.07,2013-03-15 01:01:00,
2013-03-14 20:04:00,29.8,24.4,30.02,WSW,240,0.0,2.0,80,0.00,,BKN021,0.00,VWS V12.07,2013-03-15 01:04:00,
2013-03-14 20:06:00,29.7,24.3,30.02,WSW,240,1.0,2.0,80,0.00,,BKN021,0.00,VWS V12.07,2013-03-15 01:06:00,
2013-03-14 20:09:00,29.5,24.1,30.02,WSW,240,2.0,2.0,80,0.00,,BKN021,0.00,VWS V12.07,2013-03-15 01:09:00,
2013-03-14 20:10:00,29.5,24.1,30.02,WSW,240,1.0,2.0,80,0.00,,BKN021,0.00,VWS V12.07,2013-03-15 01:10:00,
2013-03-14 20:12:00,29.4,24.0,30.02,WSW,240,1.0,2.0,80,0.00,,BKN021,0.00,VWS V12.07,2013-03-15 01:12:00,
2013-03-14 20:14:00,29.3,23.9,30.02,SSW,208,1.0,2.0,80,0.00,,BKN021,0.00,VWS V12.07,2013-03-15 01:14:00,
2013-03-14 20:15:00,29.3,24.2,30.01,SSW,208,0.0,2.0,81,0.00,,BKN021,0.00,VWS V12.07,2013-03-15 01:15:00,
2013-03-14 20:17:00,29.0,23.6,30.01,SSW,207,0.0,2.0,80,0.00,,BKN021,0.00,VWS V12.07,2013-03-15 01:17:00,
2013-03-14 20:19:00,28.8,23.7,30.01,SSW,208,1.0,2.0,81,0.00,,BKN021,0.00,VWS V12.07,2013-03-15 01:19:00,
2013-03-14 20:20:00,28.8,23.7,30.01,SSW,211,3.0,3.0,81,0.00,,BKN021,0.00,VWS V12.07,2013-03-15 01:20:00,
2013-03-14 20:22:00,28.8,24.0,30.01,SSW,211,1.0,3.0,82,0.00,,BKN021,0.00,VWS V12.07,2013-03-15 01:22:00,
2013-03-14 20:24:00,28.8,24.0,30.01,SSW,207,2.0,4.0,82,0.00,,BKN021,0.00,VWS V12.07,2013-03-15 01:24:00,
2013-03-14 20:25:00,28.8,24.0,30.01,SW,221,2.0,4.0,82,0.00,,BKN021,0.00,VWS V12.07,2013-03-15 01:25:00,
2013-03-14 20:28:00,29.0,24.2,30.01,SW,221,1.0,3.0,82,0.00,,BKN021,0.00,VWS V12.07,2013-03-15 01:28:00,
2013-03-14 20:29:00,29.0,24.2,30.01,SW,221,1.0,3.0,82,0.00,,BKN021,0.00,VWS V12.07,2013-03-15 01:29:00,
2013-03-14 20:30:00,29.0,24.2,30.01,SW,221,1.0,3.0,82,0.00,,BKN021,0.00,VWS V12.07,2013-03-15 01:30:00,
2013-03-14 20:31:00,29.0,24.2,30.01,SW,221,2.0,3.0,82,0.00,,BKN021,0.00,VWS V12.07,2013-03-15 01:31:00,
2013-03-14 20:33:00,28.8,24.0,30.01,SW,220,1.0,3.0,82,0.00,,BKN021,0.00,VWS V12.07,2013-03-15 01:33:00,
2013-03-14 20:35:00,28.8,24.0,30.01,SW,220,0.0,3.0,82,0.00,,SCT019,0.00,VWS V12.07,2013-03-15 01:35:00,
2013-03-14 20:36:00,29.0,24.2,30.01,SW,220,1.0,3.0,82,0.00,,SCT019,0.00,VWS V12.07,2013-03-15 01:36:00,
2013-03-14 20:38:00,28.8,24.0,30.01,SW,220,2.0,3.0,82,0.00,,SCT019,0.00,VWS V12.07,2013-03-15 01:38:00,
2013-03-14 20:40:00,28.8,24.0,30.01,SW,220,1.0,3.0,82,0.00,,SCT019,0.00,VWS V12.07,2013-03-15 01:40:00,
2013-03-14 20:41:00,28.8,24.0,30.01,SW,220,1.0,3.0,82,0.00,,SCT019,0.00,VWS V12.07,2013-03-15 01:41:00,
2013-03-14 20:43:00,28.7,23.9,30.01,SW,220,2.0,3.0,82,0.00,,SCT019,0.00,VWS V12.07,2013-03-15 01:43:00,
2013-03-14 20:45:00,28.5,23.7,30.00,SW,214,2.0,3.0,82,0.00,,SCT019,0.00,VWS V12.07,2013-03-15 01:45:00,
2013-03-14 20:46:00,28.5,23.7,30.00,SSW,210,3.0,3.0,82,0.00,,SCT019,0.00,VWS V12.07,2013-03-15 01:46:00,
2013-03-14 20:47:00,28.5,23.7,30.00,SSW,210,1.0,3.0,82,0.00,,SCT019,0.00,VWS V12.07,2013-03-15 01:47:00,
2013-03-14 20:48:00,28.5,23.7,30.00,SSW,208,1.0,3.0,82,0.00,,SCT019,0.00,VWS V12.07,2013-03-15 01:48:00,
2013-03-14 20:50:00,28.4,23.6,30.00,SSW,205,3.0,3.0,82,0.00,,CLR,0.00,VWS V12.07,2013-03-15 01:50:00,
2013-03-14 20:51:00,28.2,23.4,30.00,SSW,207,1.0,3.0,82,0.00,,CLR,0.00,VWS V12.07,2013-03-15 01:51:00,
2013-03-14 20:53:00,28.1,23.3,30.00,SSW,207,1.0,3.0,82,0.00,,CLR,0.00,VWS V12.07,2013-03-15 01:53:00,
2013-03-14 20:55:00,27.9,23.1,30.00,SSW,203,3.0,4.0,82,0.00,,CLR,0.00,VWS V12.07,2013-03-15 01:55:00,
2013-03-14 20:56:00,28.1,23.6,30.00,SW,221,1.0,4.0,83,0.00,,CLR,0.00,VWS V12.07,2013-03-15 01:56:00,
2013-03-14 20:58:00,28.1,23.6,30.00,SSW,207,0.0,4.0,83,0.00,,CLR,0.00,VWS V12.07,2013-03-15 01:58:00,
2013-03-14 20:59:00,28.1,23.6,30.00,SSW,207,1.0,4.0,83,0.00,,CLR,0.00,VWS V12.07,2013-03-15 01:59:00,
2013-03-14 21:00:00,28.1,23.6,29.98,SW,214,1.0,4.0,83,0.00,,CLR,0.00,VWS V12.07,2013-03-15 02:00:00,
2013-03-14 21:02:00,28.1,23.6,29.98,SW,219,1.0,9.0,83,0.00,,CLR,0.00,VWS V12.07,2013-03-15 02:02:00,
2013-03-14 21:03:00,28.1,23.6,29.98,SW,219,2.0,9.0,83,0.00,,CLR,0.00,VWS V12.07,2013-03-15 02:03:00,
2013-03-14 21:04:00,28.1,23.6,29.98,SW,224,2.0,9.0,83,0.00,,CLR,0.00,VWS V12.07,2013-03-15 02:04:00,
2013-03-14 21:05:00,28.1,23.6,29.98,SW,226,2.0,9.0,83,0.00,,CLR,0.00,VWS V12.07,2013-03-15 02:05:00,
2013-03-14 21:07:00,28.2,23.7,29.98,SW,228,1.0,9.0,83,0.00,,CLR,0.00,VWS V12.07,2013-03-15 02:07:00,
2013-03-14 21:08:00,28.2,23.7,29.98,South,190,4.0,9.0,83,0.00,,CLR,0.00,VWS V12.07,2013-03-15 02:08:00,
2013-03-14 21:09:00,28.2,23.7,29.98,SSW,198,1.0,4.0,83,0.00,,CLR,0.00,VWS V12.07,2013-03-15 02:09:00,
2013-03-14 21:10:00,28.7,24.2,29.99,SW,229,2.0,4.0,83,0.00,,BKN032,0.00,VWS V12.07,2013-03-15 02:10:00,
2013-03-14 21:11:00,28.2,23.7,29.98,WSW,237,1.0,4.0,83,0.00,,CLR,0.00,VWS V12.07,2013-03-15 02:11:00,
2013-03-14 21:13:00,28.1,23.6,29.98,SW,229,2.0,4.0,83,0.00,,CLR,0.00,VWS V12.07,2013-03-15 02:13:00,
2013-03-14 21:14:00,28.1,23.6,29.98,SW,227,1.0,4.0,83,0.00,,CLR,0.00,VWS V12.07,2013-03-15 02:14:00,
2013-03-14 21:17:00,28.1,23.6,29.99,SW,229,1.0,4.0,83,0.00,,CLR,0.00,VWS V12.07,2013-03-15 02:17:00,
2013-03-14 21:18:00,28.1,23.6,29.99,SW,229,1.0,4.0,83,0.00,,CLR,0.00,VWS V12.07,2013-03-15 02:18:00,
2013-03-14 21:19:00,28.1,23.6,29.99,SW,229,0.0,3.0,83,0.00,,CLR,0.00,VWS V12.07,2013-03-15 02:19:00,
2013-03-14 21:20:00,28.7,23.9,29.97,SSW,198,1.0,5.0,82,0.00,,BKN032,0.00,VWS V12.07,2013-03-15 02:20:00,
2013-03-14 21:22:00,28.1,23.6,29.99,SW,229,2.0,3.0,83,0.00,,CLR,0.00,VWS V12.07,2013-03-15 02:22:00,
2013-03-14 21:23:00,28.2,24.0,29.99,SW,233,0.0,3.0,84,0.00,,CLR,0.00,VWS V12.07,2013-03-15 02:23:00,
2013-03-14 21:24:00,28.2,23.7,29.99,SW,233,0.0,3.0,83,0.00,,CLR,0.00,VWS V12.07,2013-03-15 02:24:00,
2013-03-14 21:27:00,28.4,23.9,29.99,SW,233,1.0,2.0,83,0.00,,CLR,0.00,VWS V12.07,2013-03-15 02:27:00,
2013-03-14 21:28:00,28.2,23.7,29.99,SW,233,2.0,2.0,83,0.00,,CLR,0.00,VWS V12.07,2013-03-15 02:28:00,
2013-03-14 21:29:00,28.2,23.7,29.99,WSW,239,2.0,3.0,83,0.00,,CLR,0.00,VWS V12.07,2013-03-15 02:29:00,
2013-03-14 21:30:00,28.7,24.2,29.96,SW,214,2.0,4.0,83,0.00,,BKN032,0.00,VWS V12.07,2013-03-15 02:30:00,
2013-03-14 21:32:00,28.4,23.9,29.99,WSW,239,2.0,3.0,83,0.00,,CLR,0.00,VWS V12.07,2013-03-15 02:32:00,
2013-03-14 21:34:00,28.4,23.9,29.99,SSW,208,0.0,4.0,83,0.00,,SCT032,0.00,VWS V12.07,2013-03-15 02:34:00,
2013-03-14 21:38:00,28.5,24.0,29.99,SW,218,1.0,4.0,83,0.00,,SCT032,0.00,VWS V12.07,2013-03-15 02:38:00,
2013-03-14 21:39:00,28.5,24.0,29.99,SW,218,0.0,2.0,83,0.00,,SCT032,0.00,VWS V12.07,2013-03-15 02:39:00,
2013-03-14 21:40:00,28.5,24.0,29.99,SW,235,2.0,2.0,83,0.00,,SCT032,0.00,VWS V12.07,2013-03-15 02:40:00,
2013-03-14 21:43:00,28.7,24.2,29.99,WSW,245,1.0,3.0,83,0.00,,SCT032,0.00,VWS V12.07,2013-03-15 02:43:00,
2013-03-14 21:44:00,28.7,24.2,29.99,WSW,245,0.0,3.0,83,0.00,,SCT032,0.00,VWS V12.07,2013-03-15 02:44:00,
2013-03-14 21:45:00,28.7,24.2,29.99,WSW,245,2.0,3.0,83,0.00,,SCT032,0.00,VWS V12.07,2013-03-15 02:45:00,
2013-03-14 21:48:00,28.7,24.2,29.99,WSW,245,1.0,4.0,83,0.00,,SCT032,0.00,VWS V12.07,2013-03-15 02:48:00,
2013-03-14 21:49:00,28.7,24.2,29.99,WSW,245,0.0,4.0,83,0.00,,SCT032,0.00,VWS V12.07,2013-03-15 02:49:00,
2013-03-14 21:50:00,28.7,24.2,29.99,WSW,245,1.0,4.0,83,0.00,,BKN032,0.00,VWS V12.07,2013-03-15 02:50:00,
2013-03-14 21:53:00,28.7,24.2,29.99,SW,229,1.0,4.0,83,0.00,,BKN032,0.00,VWS V12.07,2013-03-15 02:53:00,
2013-03-14 21:54:00,28.7,24.2,29.99,SW,229,2.0,4.0,83,0.00,,BKN032,0.00,VWS V12.07,2013-03-15 02:54:00,
2013-03-14 21:55:00,28.7,24.2,29.99,SW,229,2.0,4.0,83,0.00,,BKN032,0.00,VWS V12.07,2013-03-15 02:55:00,
2013-03-14 21:56:00,28.7,24.2,29.99,SW,220,4.0,5.0,83,0.00,,BKN032,0.00,VWS V12.07,2013-03-15 02:56:00,
2013-03-14 21:58:00,28.7,24.2,29.99,WSW,242,0.0,5.0,83,0.00,,BKN032,0.00,VWS V12.07,2013-03-15 02:58:00,
2013-03-14 21:59:00,28.7,24.2,29.97,WSW,242,0.0,5.0,83,0.00,,BKN032,0.00,VWS V12.07,2013-03-15 02:59:00,
2013-03-14 22:00:00,28.8,24.3,29.95,SW,220,1.0,5.0,83,0.00,,OVC023,0.00,VWS V12.07,2013-03-15 03:00:00,
2013-03-14 22:01:00,28.7,24.2,29.97,SW,229,1.0,5.0,83,0.00,,BKN032,0.00,VWS V12.07,2013-03-15 03:01:00,
2013-03-14 22:02:00,28.7,24.2,29.97,SW,229,1.0,5.0,83,0.00,,BKN032,0.00,VWS V12.07,2013-03-15 03:02:00,
2013-03-14 22:03:00,28.7,24.2,29.97,SW,229,1.0,5.0,83,0.00,,BKN032,0.00,VWS V12.07,2013-03-15 03:03:00,
2013-03-14 22:05:00,28.7,23.9,29.97,SSW,198,1.0,5.0,82,0.00,,BKN032,0.00,VWS V12.07,2013-03-15 03:05:00,
2013-03-14 22:06:00,28.8,24.0,29.97,SSW,205,1.0,5.0,82,0.00,,BKN032,0.00,VWS V12.07,2013-03-15 03:06:00,
2013-03-14 22:07:00,28.7,23.9,29.97,SSW,208,1.0,5.0,82,0.00,,BKN032,0.00,VWS V12.07,2013-03-15 03:07:00,
2013-03-14 22:08:00,28.7,23.9,29.97,SSW,210,1.0,5.0,82,0.00,,BKN032,0.00,VWS V12.07,2013-03-15 03:08:00,
2013-03-14 22:10:00,28.7,24.2,29.97,SW,221,2.0,4.0,83,0.00,,BKN032,0.00,VWS V12.07,2013-03-15 03:10:00,
2013-03-14 22:12:00,28.7,24.2,29.97,SW,214,0.0,4.0,83,0.00,,BKN032,0.00,VWS V12.07,2013-03-15 03:12:00,
2013-03-14 22:14:00,28.7,24.2,29.97,SW,214,1.0,4.0,83,0.00,,BKN032,0.00,VWS V12.07,2013-03-15 03:14:00,
2013-03-14 22:15:00,28.7,24.2,29.96,SW,214,3.0,4.0,83,0.00,,BKN032,0.00,VWS V12.07,2013-03-15 03:15:00,
2013-03-14 22:17:00,28.7,24.2,29.96,SSW,195,1.0,4.0,83,0.00,,BKN032,0.00,VWS V12.07,2013-03-15 03:17:00,
2013-03-14 22:18:00,28.7,24.2,29.96,SSW,195,3.0,4.0,83,0.00,,BKN032,0.00,VWS V12.07,2013-03-15 03:18:00,
2013-03-14 22:19:00,28.7,24.2,29.96,SSW,200,4.0,4.0,83,0.00,,BKN032,0.00,VWS V12.07,2013-03-15 03:19:00,
2013-03-14 22:20:00,28.7,24.2,29.96,South,179,3.0,7.0,83,0.00,,BKN032,0.00,VWS V12.07,2013-03-15 03:20:00,
2013-03-14 22:23:00,28.7,24.2,29.96,SSW,212,2.0,7.0,83,0.00,,BKN032,0.00,VWS V12.07,2013-03-15 03:23:00,
2013-03-14 22:24:00,28.7,24.2,29.96,South,172,2.0,7.0,83,0.00,,BKN032,0.00,VWS V12.07,2013-03-15 03:24:00,
2013-03-14 22:26:00,28.7,24.2,29.96,SW,234,0.0,3.0,83,0.00,,BKN032,0.00,VWS V12.07,2013-03-15 03:26:00,
2013-03-14 22:28:00,28.7,24.2,29.96,SW,219,1.0,3.0,83,0.00,,BKN032,0.00,VWS V12.07,2013-03-15 03:28:00,
2013-03-14 22:29:00,28.7,24.2,29.96,SW,219,0.0,3.0,83,0.00,,BKN032,0.00,VWS V12.07,2013-03-15 03:29:00,
2013-03-14 22:30:00,28.8,24.3,29.93,SW,219,1.0,3.0,83,0.00,,OVC021,0.00,VWS V12.07,2013-03-15 03:30:00,
2013-03-14 22:31:00,28.7,24.2,29.96,SSW,210,1.0,6.0,83,0.00,,BKN032,0.00,VWS V12.07,2013-03-15 03:31:00,
2013-03-14 22:33:00,28.7,24.2,29.96,SW,228,2.0,6.0,83,0.00,,BKN032,0.00,VWS V12.07,2013-03-15 03:33:00,
2013-03-14 22:34:00,28.7,24.2,29.96,SW,229,2.0,6.0,83,0.00,,BKN032,0.00,VWS V12.07,2013-03-15 03:34:00,
2013-03-14 22:36:00,28.7,24.2,29.96,SW,226,2.0,6.0,83,0.00,,OVC023,0.00,VWS V12.07,2013-03-15 03:36:00,
2013-03-14 22:38:00,28.7,24.2,29.96,SW,226,1.0,4.0,83,0.00,,OVC023,0.00,VWS V12.07,2013-03-15 03:38:00,
2013-03-14 22:39:00,28.7,24.2,29.96,SW,226,4.0,4.0,83,0.00,,OVC023,0.00,VWS V12.07,2013-03-15 03:39:00,
2013-03-14 22:40:00,28.8,24.3,29.93,SW,214,0.0,4.0,83,0.00,,OVC021,0.00,VWS V12.07,2013-03-15 03:40:00,
2013-03-14 22:42:00,28.8,24.3,29.96,SW,233,1.0,5.0,83,0.00,,OVC023,0.00,VWS V12.07,2013-03-15 03:42:00,
2013-03-14 22:44:00,28.8,24.3,29.96,SW,220,2.0,5.0,83,0.00,,OVC023,0.00,VWS V12.07,2013-03-15 03:44:00,
2013-03-14 22:47:00,28.8,24.3,29.95,SW,220,0.0,5.0,83,0.00,,OVC023,0.00,VWS V12.07,2013-03-15 03:47:00,
2013-03-14 22:49:00,28.8,24.3,29.95,WSW,246,1.0,4.0,83,0.00,,OVC023,0.00,VWS V12.07,2013-03-15 03:49:00,
2013-03-14 22:50:00,29.0,24.5,29.93,WSW,240,0.0,7.0,83,0.00,,OVC019,0.00,VWS V12.07,2013-03-15 03:50:00,
2013-03-14 22:53:00,28.8,24.3,29.95,SW,221,2.0,4.0,83,0.00,,OVC021,0.00,VWS V12.07,2013-03-15 03:53:00,
2013-03-14 22:54:00,28.8,24.3,29.95,SW,221,0.0,4.0,83,0.00,,OVC021,0.00,VWS V12.07,2013-03-15 03:54:00,
2013-03-14 22:58:00,28.8,24.3,29.95,SW,234,2.0,4.0,83,0.00,,OVC021,0.00,VWS V12.07,2013-03-15 03:58:00,
2013-03-14 22:59:00,28.8,24.3,29.94,South,169,3.0,5.0,83,0.00,,OVC021,0.00,VWS V12.07,2013-03-15 03:59:00,
2013-03-14 23:00:00,28.8,24.3,29.94,South,176,2.0,5.0,83,0.00,,OVC021,0.00,VWS V12.07,2013-03-15 04:00:00,
2013-03-14 23:01:00,28.8,24.3,29.94,WSW,244,2.0,5.0,83,0.00,,OVC021,0.00,VWS V12.07,2013-03-15 04:01:00,
2013-03-14 23:05:00,28.8,24.3,29.94,SW,219,1.0,5.0,83,0.00,,OVC021,0.00,VWS V12.07,2013-03-15 04:05:00,
2013-03-14 23:06:00,28.8,24.3,29.94,SW,219,0.0,5.0,83,0.00,,OVC021,0.00,VWS V12.07,2013-03-15 04:06:00,
2013-03-14 23:10:00,28.8,24.3,29.94,SW,219,0.0,3.0,83,0.00,,OVC021,0.00,VWS V12.07,2013-03-15 04:10:00,
2013-03-14 23:11:00,28.8,24.3,29.94,SW,219,0.0,3.0,83,0.00,,OVC021,0.00,VWS V12.07,2013-03-15 04:11:00,
2013-03-14 23:15:00,28.8,24.3,29.93,SW,219,2.0,3.0,83,0.00,,OVC021,0.00,VWS V12.07,2013-03-15 04:15:00,
2013-03-14 23:16:00,28.8,24.3,29.93,SW,219,1.0,3.0,83,0.00,,OVC021,0.00,VWS V12.07,2013-03-15 04:16:00,
2013-03-14 23:17:00,28.8,24.3,29.93,SW,219,2.0,3.0,83,0.00,,OVC021,0.00,VWS V12.07,2013-03-15 04:17:00,
2013-03-14 23:20:00,28.8,24.3,29.93,SW,226,2.0,3.0,83,0.00,,OVC021,0.00,VWS V12.07,2013-03-15 04:20:00,
2013-03-14 23:21:00,28.8,24.3,29.93,SW,226,0.0,3.0,83,0.00,,OVC021,0.00,VWS V12.07,2013-03-15 04:21:00,
2013-03-14 23:23:00,28.8,24.3,29.93,SW,233,2.0,4.0,83,0.00,,OVC021,0.00,VWS V12.07,2013-03-15 04:23:00,
2013-03-14 23:25:00,28.8,24.3,29.93,SW,214,1.0,4.0,83,0.00,,OVC021,0.00,VWS V12.07,2013-03-15 04:25:00,
2013-03-14 23:27:00,28.8,24.3,29.93,WSW,243,1.0,4.0,83,0.00,,OVC021,0.00,VWS V12.07,2013-03-15 04:27:00,
2013-03-14 23:28:00,28.8,24.3,29.93,WSW,242,3.0,4.0,83,0.00,,OVC021,0.00,VWS V12.07,2013-03-15 04:28:00,
2013-03-14 23:30:00,29.0,24.5,29.92,WSW,248,0.0,2.0,83,0.00,,OVC019,0.00,VWS V12.07,2013-03-15 04:30:00,
2013-03-14 23:31:00,29.0,24.5,29.93,SW,217,1.0,7.0,83,0.00,,OVC021,0.00,VWS V12.07,2013-03-15 04:31:00,
2013-03-14 23:32:00,29.0,24.5,29.93,WSW,240,0.0,7.0,83,0.00,,OVC021,0.00,VWS V12.07,2013-03-15 04:32:00,
2013-03-14 23:33:00,29.0,24.5,29.93,WSW,240,0.0,7.0,83,0.00,,OVC021,0.00,VWS V12.07,2013-03-15 04:33:00,
2013-03-14 23:36:00,29.0,24.2,29.93,WSW,240,0.0,7.0,82,0.00,,OVC019,0.00,VWS V12.07,2013-03-15 04:36:00,
2013-03-14 23:37:00,29.0,24.5,29.93,WSW,240,1.0,7.0,83,0.00,,OVC019,0.00,VWS V12.07,2013-03-15 04:37:00,
2013-03-14 23:38:00,29.0,24.5,29.93,WSW,240,2.0,7.0,83,0.00,,OVC019,0.00,VWS V12.07,2013-03-15 04:38:00,
2013-03-14 23:40:00,29.0,24.5,29.92,SW,232,2.0,3.0,83,0.00,,OVC019,0.00,VWS V12.07,2013-03-15 04:40:00,
2013-03-14 23:41:00,29.0,24.2,29.93,WSW,250,0.0,4.0,82,0.00,,OVC019,0.00,VWS V12.07,2013-03-15 04:41:00,
2013-03-14 23:42:00,29.0,24.2,29.93,SSW,213,2.0,4.0,82,0.00,,OVC019,0.00,VWS V12.07,2013-03-15 04:42:00,
2013-03-14 23:43:00,29.0,24.2,29.93,SSW,213,1.0,4.0,82,0.00,,OVC019,0.00,VWS V12.07,2013-03-15 04:43:00,
2013-03-14 23:44:00,29.0,24.2,29.93,SSW,213,1.0,4.0,82,0.00,,OVC019,0.00,VWS V12.07,2013-03-15 04:44:00,
2013-03-14 23:46:00,29.0,24.2,29.92,SSW,213,1.0,4.0,82,0.00,,OVC019,0.00,VWS V12.07,2013-03-15 04:46:00,
2013-03-14 23:48:00,29.0,24.2,29.92,SSW,213,0.0,4.0,82,0.00,,OVC019,0.00,VWS V12.07,2013-03-15 04:48:00,
2013-03-14 23:49:00,29.0,24.5,29.92,SSW,213,0.0,2.0,83,0.00,,OVC019,0.00,VWS V12.07,2013-03-15 04:49:00,
2013-03-14 23:50:00,29.0,24.5,29.92,SSW,207,0.0,5.0,83,0.00,,OVC021,0.00,VWS V12.07,2013-03-15 04:50:00,
2013-03-14 23:52:00,29.0,24.5,29.92,SW,230,2.0,3.0,83,0.00,,OVC019,0.00,VWS V12.07,2013-03-15 04:52:00,
2013-03-14 23:53:00,29.0,24.5,29.92,SW,230,1.0,3.0,83,0.00,,OVC019,0.00,VWS V12.07,2013-03-15 04:53:00,
2013-03-14 23:54:00,29.0,24.5,29.92,SW,230,2.0,3.0,83,0.00,,OVC019,0.00,VWS V12.07,2013-03-15 04:54:00,
2013-03-14 23:57:00,29.0,24.5,29.92,SW,230,1.0,3.0,83,0.00,,OVC019,0.00,VWS V12.07,2013-03-15 04:57:00,
2013-03-14 23:58:00,29.0,24.5,29.92,SW,230,0.0,3.0,83,0.00,,OVC019,0.00,VWS V12.07,2013-03-15 04:58:00,
2013-03-14 23:59:00,29.0,24.5,29.92,SW,230,1.0,2.0,83,0.00,,OVC019,0.00,VWS V12.07,2013-03-15 04:59:00,